Observation data for Hobbs on 11/19/2019      Previous  Date       Current Mesonet Observations  Soil Data  Daily Summary Page  Observations in Plain Language
KHO1 190600Z 10001KT 07/M00 A3002 RMK A01 T00741003  RH  058%=      5-min Rain = 0
KHO1 190601Z 10001KT 07/M00 A3002 RMK A01 T00741002  RH  058%=      5-min Rain = 0
KHO1 190602Z 11001KT 07/M00 A3002 RMK A01 T00731002  RH  059%=      5-min Rain = 0
KHO1 190603Z 11000KT 07/M00 A3002 RMK A01 T00721003  RH  059%=      5-min Rain = 0
KHO1 190604Z 00000KT 07/M00 A3002 RMK A01 T00701003  RH  060%=      5-min Rain = 0
KHO1 190605Z 00000KT 07/M00 A3002 RMK A01 T00691003  RH  060%=      5-min Rain = 0
KHO1 190606Z 11000KT 07/M00 A3002 RMK A01 T00681003  RH  061%=      5-min Rain = 0
KHO1 190607Z 09000KT 07/M00 A3002 RMK A01 T00661003  RH  061%=      5-min Rain = 0
KHO1 190608Z 00000KT 06/M00 A3002 RMK A01 T00641003  RH  062%=      5-min Rain = 0
KHO1 190609Z 00000KT 06/M00 A3002 RMK A01 T00631003  RH  063%=      5-min Rain = 0
KHO1 190610Z 00000KT 06/M00 A3002 RMK A01 T00631003  RH  063%=      5-min Rain = 0
KHO1 190611Z 00000KT 06/M00 A3002 RMK A01 T00631003  RH  063%=      5-min Rain = 0
KHO1 190612Z 00000KT 06/M00 A3002 RMK A01 T00631003  RH  063%=      5-min Rain = 0
KHO1 190613Z 00000KT 06/M00 A3002 RMK A01 T00631003  RH  063%=      5-min Rain = 0
KHO1 190614Z 00000KT 06/M00 A3002 RMK A01 T00641003  RH  062%=      5-min Rain = 0
KHO1 190615Z 02000KT 06/M00 A3002 RMK A01 T00631003  RH  062%=      5-min Rain = 0
KHO1 190616Z 02001KT 06/M00 A3002 RMK A01 T00631003  RH  062%=      5-min Rain = 0
KHO1 190617Z 02000KT 06/M00 A3002 RMK A01 T00631004  RH  062%=      5-min Rain = 0
KHO1 190618Z 07001KT 06/M00 A3002 RMK A01 T00621004  RH  062%=      5-min Rain = 0
KHO1 190619Z 07001KT 06/M00 A3002 RMK A01 T00621004  RH  063%=      5-min Rain = 0
KHO1 190620Z 07001KT 06/M00 A3002 RMK A01 T00631003  RH  063%=      5-min Rain = 0
KHO1 190621Z 06001KT 06/M00 A3002 RMK A01 T00631003  RH  063%=      5-min Rain = 0
KHO1 190622Z 06001KT 06/M00 A3002 RMK A01 T00631003  RH  063%=      5-min Rain = 0
KHO1 190623Z 06001KT 06/M00 A3002 RMK A01 T00641003  RH  062%=      5-min Rain = 0
KHO1 190624Z 06001KT 06/M00 A3002 RMK A01 T00641002  RH  063%=      5-min Rain = 0
KHO1 190625Z 06001KT 06/M00 A3002 RMK A01 T00641001  RH  063%=      5-min Rain = 0
KHO1 190626Z 05001KT 07/M00 A3002 RMK A01 T00651001  RH  063%=      5-min Rain = 0
KHO1 190627Z 05002KT 07/M00 A3002 RMK A01 T00661001  RH  062%=      5-min Rain = 0
KHO1 190628Z 05002KT 07/M00 A3002 RMK A01 T00671001  RH  062%=      5-min Rain = 0
KHO1 190629Z 05002KT 07/00 A3002 RMK A01 T00670000  RH  062%=      5-min Rain = 0
KHO1 190630Z 05002KT 07/00 A3002 RMK A01 T00670001  RH  063%=      5-min Rain = 0
KHO1 190631Z 05002KT 07/00 A3002 RMK A01 T00670001  RH  063%=      5-min Rain = 0
KHO1 190632Z 04003KT 07/00 A3002 RMK A01 T00660001  RH  063%=      5-min Rain = 0
KHO1 190633Z 03003KT 07/00 A3002 RMK A01 T00660001  RH  063%=      5-min Rain = 0
KHO1 190634Z 03003KT 07/00 A3002 RMK A01 T006500-0  RH  063%=      5-min Rain = 0
KHO1 190635Z 03002KT 06/00 A3002 RMK A01 T006400-0  RH  064%=      5-min Rain = 0
KHO1 190636Z 02002KT 06/M00 A3002 RMK A01 T00641001  RH  063%=      5-min Rain = 0
KHO1 190637Z 02002KT 06/M00 A3002 RMK A01 T00641001  RH  063%=      5-min Rain = 0
KHO1 190638Z 02002KT 06/M00 A3002 RMK A01 T00641002  RH  063%=      5-min Rain = 0
KHO1 190639Z 01002KT 06/M00 A3002 RMK A01 T00641002  RH  063%=      5-min Rain = 0
KHO1 190640Z 01002KT 06/M00 A3002 RMK A01 T00631004  RH  062%=      5-min Rain = 0
KHO1 190641Z 01002KT 06/M00 A3002 RMK A01 T00611004  RH  063%=      5-min Rain = 0
KHO1 190642Z 00002KT 06/M00 A3002 RMK A01 T00601004  RH  064%=      5-min Rain = 0
KHO1 190643Z 00002KT 06/M00 A3002 RMK A01 T00591002  RH  065%=      5-min Rain = 0
KHO1 190644Z 00002KT 06/M00 A3002 RMK A01 T00581002  RH  066%=      5-min Rain = 0
KHO1 190645Z 00002KT 06/M00 A3002 RMK A01 T00571002  RH  066%=      5-min Rain = 0
KHO1 190646Z 00002KT 06/M00 A3002 RMK A01 T00561003  RH  066%=      5-min Rain = 0
KHO1 190647Z 00002KT 06/M00 A3002 RMK A01 T00551003  RH  066%=      5-min Rain = 0
KHO1 190648Z 00002KT 05/M00 A3002 RMK A01 T00541002  RH  067%=      5-min Rain = 0
KHO1 190649Z 00002KT 05/M00 A3002 RMK A01 T00541003  RH  067%=      5-min Rain = 0
KHO1 190650Z 01002KT 05/M00 A3002 RMK A01 T00541003  RH  067%=      5-min Rain = 0
KHO1 190651Z 01002KT 05/M00 A3002 RMK A01 T00531003  RH  067%=      5-min Rain = 0
KHO1 190652Z 01002KT 05/M00 A3002 RMK A01 T00531004  RH  067%=      5-min Rain = 0
KHO1 190653Z 00002KT 05/M00 A3002 RMK A01 T00531004  RH  067%=      5-min Rain = 0
KHO1 190654Z 36002KT 05/M00 A3002 RMK A01 T00521004  RH  067%=      5-min Rain = 0
KHO1 190655Z 35003KT 05/M00 A3002 RMK A01 T00521003  RH  068%=      5-min Rain = 0
KHO1 190656Z 35003KT 05/M00 A3002 RMK A01 T00511003  RH  068%=      5-min Rain = 0
KHO1 190657Z 35003KT 05/M00 A3002 RMK A01 T00511003  RH  068%=      5-min Rain = 0
KHO1 190658Z 36003KT 05/M00 A3002 RMK A01 T00511003  RH  068%=      5-min Rain = 0
KHO1 190659Z 00003KT 05/M00 A3002 RMK A01 T00511002  RH  068%=      5-min Rain = 0
KHO1 190700Z 00003KT 05/M00 A3002 RMK A01 T00511002  RH  069%=      5-min Rain = 0
KHO1 190701Z 00003KT 05/M00 A3002 RMK A01 T00511001  RH  069%=      5-min Rain = 0
KHO1 190702Z 00003KT 05/M00 A3002 RMK A01 T00511002  RH  069%=      5-min Rain = 0
KHO1 190703Z 00003KT 05/M00 A3002 RMK A01 T00511002  RH  068%=      5-min Rain = 0
KHO1 190704Z 00003KT 05/M00 A3002 RMK A01 T00521003  RH  068%=      5-min Rain = 0
KHO1 190705Z 00003KT 05/M00 A3002 RMK A01 T00531003  RH  067%=      5-min Rain = 0
KHO1 190706Z 00003KT 05/M00 A3002 RMK A01 T00531002  RH  068%=      5-min Rain = 0
KHO1 190707Z 35003KT 05/M00 A3002 RMK A01 T00541001  RH  068%=      5-min Rain = 0
KHO1 190708Z 35003KT 05/M00 A3002 RMK A01 T00541001  RH  067%=      5-min Rain = 0
KHO1 190709Z 35002KT 05/M00 A3002 RMK A01 T00541002  RH  067%=      5-min Rain = 0
KHO1 190710Z 35003KT 05/M00 A3002 RMK A01 T00541002  RH  067%=      5-min Rain = 0
KHO1 190711Z 34002KT 05/M00 A3002 RMK A01 T00531001  RH  068%=      5-min Rain = 0
KHO1 190712Z 34002KT 05/M00 A3002 RMK A01 T00531001  RH  068%=      5-min Rain = 0
KHO1 190713Z 34002KT 05/M00 A3002 RMK A01 T00521002  RH  068%=      5-min Rain = 0
KHO1 190714Z 34002KT 05/M00 A3002 RMK A01 T00511003  RH  068%=      5-min Rain = 0
KHO1 190715Z 33002KT 05/M00 A3002 RMK A01 T00501003  RH  068%=      5-min Rain = 0
KHO1 190716Z 32002KT 05/M00 A3002 RMK A01 T00491004  RH  068%=      5-min Rain = 0
KHO1 190717Z 29002KT 05/M01 A3002 RMK A01 T00491005  RH  068%=      5-min Rain = 0
KHO1 190718Z 28002KT 05/M01 A3002 RMK A01 T00481005  RH  068%=      5-min Rain = 0
KHO1 190719Z 27002KT 05/M00 A3002 RMK A01 T00481004  RH  069%=      5-min Rain = 0
KHO1 190720Z 26003KT 05/M00 A3002 RMK A01 T00471004  RH  069%=      5-min Rain = 0
KHO1 190721Z 26002KT 05/M01 A3003 RMK A01 T00461006  RH  069%=      5-min Rain = 0
KHO1 190722Z 26002KT 05/M01 A3002 RMK A01 T00451006  RH  070%=      5-min Rain = 0
KHO1 190723Z 28002KT 04/M01 A3002 RMK A01 T00441005  RH  070%=      5-min Rain = 0
KHO1 190724Z 30003KT 04/M00 A3002 RMK A01 T00441004  RH  071%=      5-min Rain = 0
KHO1 190725Z 30003KT 05/M00 A3002 RMK A01 T00451004  RH  070%=      5-min Rain = 0
KHO1 190726Z 31003KT 05/M00 A3002 RMK A01 T00461004  RH  070%=      5-min Rain = 0
KHO1 190727Z 31003KT 05/M01 A3002 RMK A01 T00461005  RH  069%=      5-min Rain = 0
KHO1 190728Z 31004KT 05/M00 A3002 RMK A01 T00461004  RH  070%=      5-min Rain = 0
KHO1 190729Z 32004KT 05/M00 A3002 RMK A01 T00461003  RH  070%=      5-min Rain = 0
KHO1 190730Z 33004KT 05/M00 A3002 RMK A01 T00461004  RH  070%=      5-min Rain = 0
KHO1 190731Z 33004KT 05/M00 A3002 RMK A01 T00471003  RH  070%=      5-min Rain = 0
KHO1 190732Z 33004KT 05/M00 A3002 RMK A01 T00471004  RH  070%=      5-min Rain = 0
KHO1 190733Z 33004KT 05/M00 A3002 RMK A01 T00461004  RH  070%=      5-min Rain = 0
KHO1 190734Z 32004KT 05/M01 A3002 RMK A01 T00451005  RH  070%=      5-min Rain = 0
KHO1 190735Z 32003KT 05/M01 A3002 RMK A01 T00451005  RH  070%=      5-min Rain = 0
KHO1 190736Z 33003KT 05/M01 A3002 RMK A01 T00451005  RH  070%=      5-min Rain = 0
KHO1 190737Z 33004KT 05/M01 A3002 RMK A01 T00451005  RH  070%=      5-min Rain = 0
KHO1 190738Z 34004KT 05/M01 A3002 RMK A01 T00451005  RH  070%=      5-min Rain = 0
KHO1 190739Z 34003KT 05/M01 A3002 RMK A01 T00451005  RH  070%=      5-min Rain = 0
KHO1 190740Z 34003KT 05/M01 A3002 RMK A01 T00451005  RH  070%=      5-min Rain = 0
KHO1 190741Z 34003KT 05/M00 A3002 RMK A01 T00461004  RH  070%=      5-min Rain = 0
KHO1 190742Z 34003KT 05/M00 A3002 RMK A01 T00451004  RH  070%=      5-min Rain = 0
KHO1 190743Z 34003KT 05/M00 A3002 RMK A01 T00461003  RH  070%=      5-min Rain = 0
KHO1 190744Z 34003KT 05/M00 A3002 RMK A01 T00461003  RH  070%=      5-min Rain = 0
KHO1 190745Z 34004KT 05/M00 A3002 RMK A01 T00461003  RH  070%=      5-min Rain = 0
KHO1 190746Z 34004KT 05/M00 A3002 RMK A01 T00471003  RH  070%=      5-min Rain = 0
KHO1 190747Z 34004KT 05/M00 A3002 RMK A01 T00471003  RH  070%=      5-min Rain = 0
KHO1 190748Z 34004KT 05/M00 A3002 RMK A01 T00471004  RH  070%=      5-min Rain = 0
KHO1 190749Z 34004KT 05/M00 A3002 RMK A01 T00471003  RH  070%=      5-min Rain = 0
KHO1 190750Z 34004KT 05/M00 A3002 RMK A01 T00471003  RH  070%=      5-min Rain = 0
KHO1 190751Z 34004KT 05/M00 A3002 RMK A01 T00481002  RH  070%=      5-min Rain = 0
KHO1 190752Z 34004KT 05/M00 A3002 RMK A01 T00491002  RH  069%=      5-min Rain = 0
KHO1 190753Z 34004KT 05/M00 A3002 RMK A01 T00501003  RH  069%=      5-min Rain = 0
KHO1 190754Z 34003KT 05/M00 A3002 RMK A01 T00511003  RH  068%=      5-min Rain = 0
KHO1 190755Z 34002KT 05/M00 A3002 RMK A01 T00511002  RH  068%=      5-min Rain = 0
KHO1 190756Z 34002KT 05/M00 A3002 RMK A01 T00511003  RH  068%=      5-min Rain = 0
KHO1 190757Z 34003KT 05/M00 A3002 RMK A01 T00511003  RH  068%=      5-min Rain = 0
KHO1 190758Z 34003KT 05/M00 A3002 RMK A01 T00511003  RH  068%=      5-min Rain = 0
KHO1 190759Z 34003KT 05/M00 A3002 RMK A01 T00511003  RH  068%=      5-min Rain = 0
KHO1 190800Z 34003KT 05/M00 A3002 RMK A01 T00511004  RH  068%=      5-min Rain = 0
KHO1 190801Z 34003KT 05/M00 A3002 RMK A01 T00511004  RH  068%=      5-min Rain = 0
KHO1 190802Z 34004KT 05/M00 A3002 RMK A01 T00501004  RH  068%=      5-min Rain = 0
KHO1 190803Z 35004KT 05/M00 A3002 RMK A01 T00501004  RH  068%=      5-min Rain = 0
KHO1 190804Z 35003KT 05/M00 A3002 RMK A01 T00491004  RH  068%=      5-min Rain = 0
KHO1 190805Z 35003KT 05/M01 A3002 RMK A01 T00481005  RH  068%=      5-min Rain = 0
KHO1 190806Z 35003KT 05/M01 A3002 RMK A01 T00481005  RH  068%=      5-min Rain = 0
KHO1 190807Z 35003KT 05/M01 A3002 RMK A01 T00481005  RH  069%=      5-min Rain = 0
KHO1 190808Z 35003KT 05/M01 A3002 RMK A01 T00481005  RH  069%=      5-min Rain = 0
KHO1 190809Z 35003KT 05/M01 A3002 RMK A01 T00481005  RH  069%=      5-min Rain = 0
KHO1 190810Z 35003KT 05/M01 A3002 RMK A01 T00481005  RH  069%=      5-min Rain = 0
KHO1 190811Z 35003KT 05/M00 A3002 RMK A01 T00481004  RH  069%=      5-min Rain = 0
KHO1 190812Z 35004KT 05/M00 A3002 RMK A01 T00481004  RH  069%=      5-min Rain = 0
KHO1 190813Z 35004KT 05/M00 A3002 RMK A01 T00481004  RH  069%=      5-min Rain = 0
KHO1 190814Z 35004KT 05/M01 A3002 RMK A01 T00471005  RH  069%=      5-min Rain = 0
KHO1 190815Z 35004KT 05/M01 A3002 RMK A01 T00461005  RH  070%=      5-min Rain = 0
KHO1 190816Z 35003KT 05/M01 A3002 RMK A01 T00451005  RH  070%=      5-min Rain = 0
KHO1 190817Z 35003KT 04/M01 A3002 RMK A01 T00441005  RH  071%=      5-min Rain = 0
KHO1 190818Z 35003KT 04/M01 A3002 RMK A01 T00431005  RH  071%=      5-min Rain = 0
KHO1 190819Z 35003KT 04/M00 A3002 RMK A01 T00431004  RH  071%=      5-min Rain = 0
KHO1 190820Z 35003KT 04/M00 A3002 RMK A01 T00431004  RH  072%=      5-min Rain = 0
KHO1 190821Z 35003KT 04/M00 A3002 RMK A01 T00431004  RH  071%=      5-min Rain = 0
KHO1 190822Z 35003KT 04/M00 A3002 RMK A01 T00441004  RH  071%=      5-min Rain = 0
KHO1 190823Z 35003KT 04/M00 A3002 RMK A01 T00441003  RH  071%=      5-min Rain = 0
KHO1 190824Z 35003KT 05/M00 A3002 RMK A01 T00451003  RH  071%=      5-min Rain = 0
KHO1 190825Z 35003KT 05/M00 A3002 RMK A01 T00451004  RH  071%=      5-min Rain = 0
KHO1 190826Z 35003KT 05/M00 A3002 RMK A01 T00451004  RH  071%=      5-min Rain = 0
KHO1 190827Z 34004KT 04/M00 A3002 RMK A01 T00441004  RH  071%=      5-min Rain = 0
KHO1 190828Z 34003KT 04/M00 A3002 RMK A01 T00441004  RH  071%=      5-min Rain = 0
KHO1 190829Z 34003KT 04/M00 A3002 RMK A01 T00441004  RH  071%=      5-min Rain = 0
KHO1 190830Z 35003KT 05/M00 A3002 RMK A01 T00451004  RH  071%=      5-min Rain = 0
KHO1 190831Z 34004KT 04/M00 A3002 RMK A01 T00441004  RH  071%=      5-min Rain = 0
KHO1 190832Z 34003KT 04/M00 A3002 RMK A01 T00441004  RH  071%=      5-min Rain = 0
KHO1 190833Z 34003KT 04/M00 A3002 RMK A01 T00441004  RH  071%=      5-min Rain = 0
KHO1 190834Z 34003KT 04/M00 A3002 RMK A01 T00441004  RH  071%=      5-min Rain = 0
KHO1 190835Z 33003KT 04/M00 A3002 RMK A01 T00441004  RH  071%=      5-min Rain = 0
KHO1 190836Z 33003KT 04/M00 A3002 RMK A01 T00441004  RH  071%=      5-min Rain = 0
KHO1 190837Z 33003KT 04/M00 A3002 RMK A01 T00441004  RH  071%=      5-min Rain = 0
KHO1 190838Z 33003KT 04/M01 A3002 RMK A01 T00441005  RH  070%=      5-min Rain = 0
KHO1 190839Z 33003KT 04/M00 A3002 RMK A01 T00441004  RH  071%=      5-min Rain = 0
KHO1 190840Z 34004KT 04/M00 A3002 RMK A01 T00441004  RH  071%=      5-min Rain = 0
KHO1 190841Z 34004KT 04/M00 A3002 RMK A01 T00441004  RH  071%=      5-min Rain = 0
KHO1 190842Z 34004KT 04/M00 A3002 RMK A01 T00441004  RH  071%=      5-min Rain = 0
KHO1 190843Z 34004KT 05/M00 A3002 RMK A01 T00451004  RH  071%=      5-min Rain = 0
KHO1 190844Z 34004KT 04/M00 A3002 RMK A01 T00441004  RH  071%=      5-min Rain = 0
KHO1 190845Z 34003KT 04/M00 A3002 RMK A01 T00441003  RH  071%=      5-min Rain = 0
KHO1 190846Z 34003KT 04/M00 A3002 RMK A01 T00441003  RH  071%=      5-min Rain = 0
KHO1 190847Z 34003KT 04/M00 A3002 RMK A01 T00441003  RH  071%=      5-min Rain = 0
KHO1 190848Z 34003KT 04/M00 A3002 RMK A01 T00441004  RH  071%=      5-min Rain = 0
KHO1 190849Z 34003KT 04/M00 A3002 RMK A01 T00431004  RH  071%=      5-min Rain = 0
KHO1 190850Z 34003KT 04/M00 A3002 RMK A01 T00431004  RH  071%=      5-min Rain = 0
KHO1 190851Z 33003KT 04/M00 A3002 RMK A01 T00431004  RH  072%=      5-min Rain = 0
KHO1 190852Z 34003KT 04/M00 A3002 RMK A01 T00421003  RH  072%=      5-min Rain = 0
KHO1 190853Z 33003KT 04/M00 A3002 RMK A01 T00421004  RH  072%=      5-min Rain = 0
KHO1 190854Z 33003KT 04/M00 A3002 RMK A01 T00421003  RH  072%=      5-min Rain = 0
KHO1 190855Z 33003KT 04/M00 A3002 RMK A01 T00421004  RH  072%=      5-min Rain = 0
KHO1 190856Z 32003KT 04/M00 A3002 RMK A01 T00411004  RH  072%=      5-min Rain = 0
KHO1 190857Z 32003KT 04/M00 A3002 RMK A01 T00411004  RH  073%=      5-min Rain = 0
KHO1 190858Z 32003KT 04/M00 A3002 RMK A01 T00411003  RH  073%=      5-min Rain = 0
KHO1 190859Z 31003KT 04/M00 A3002 RMK A01 T00411004  RH  073%=      5-min Rain = 0
KHO1 190900Z 31003KT 04/M00 A3002 RMK A01 T00401004  RH  073%=      5-min Rain = 0
KHO1 190901Z 31004KT 04/M01 A3002 RMK A01 T00401005  RH  072%=      5-min Rain = 0
KHO1 190902Z 31003KT 04/M01 A3002 RMK A01 T00401005  RH  072%=      5-min Rain = 0
KHO1 190903Z 31003KT 04/M01 A3002 RMK A01 T00401006  RH  072%=      5-min Rain = 0
KHO1 190904Z 32003KT 04/M01 A3002 RMK A01 T00391006  RH  072%=      5-min Rain = 0
KHO1 190905Z 32004KT 04/M01 A3002 RMK A01 T00391006  RH  073%=      5-min Rain = 0
KHO1 190906Z 32004KT 04/M01 A3001 RMK A01 T00391005  RH  073%=      5-min Rain = 0
KHO1 190907Z 32003KT 04/M01 A3001 RMK A01 T00391005  RH  073%=      5-min Rain = 0
KHO1 190908Z 32003KT 04/M01 A3001 RMK A01 T00401005  RH  072%=      5-min Rain = 0
KHO1 190909Z 31003KT 04/M01 A3001 RMK A01 T00401005  RH  072%=      5-min Rain = 0
KHO1 190910Z 31004KT 04/M01 A3001 RMK A01 T00401005  RH  072%=      5-min Rain = 0
KHO1 190911Z 31004KT 04/M01 A3001 RMK A01 T00401005  RH  073%=      5-min Rain = 0
KHO1 190912Z 31003KT 04/M01 A3001 RMK A01 T00401005  RH  073%=      5-min Rain = 0
KHO1 190913Z 30003KT 04/M01 A3001 RMK A01 T00401005  RH  073%=      5-min Rain = 0
KHO1 190914Z 30003KT 04/M01 A3001 RMK A01 T00391005  RH  073%=      5-min Rain = 0
KHO1 190915Z 30003KT 04/M01 A3001 RMK A01 T00381006  RH  073%=      5-min Rain = 0
KHO1 190916Z 30003KT 04/M01 A3001 RMK A01 T00381006  RH  073%=      5-min Rain = 0
KHO1 190917Z 31003KT 04/M01 A3001 RMK A01 T00371006  RH  074%=      5-min Rain = 0
KHO1 190918Z 32003KT 04/M01 A3001 RMK A01 T00371005  RH  074%=      5-min Rain = 0
KHO1 190919Z 32003KT 04/M01 A3001 RMK A01 T00371005  RH  074%=      5-min Rain = 0
KHO1 190920Z 33003KT 04/M00 A3001 RMK A01 T00371004  RH  074%=      5-min Rain = 0
KHO1 190921Z 32003KT 04/M01 A3001 RMK A01 T00371005  RH  074%=      5-min Rain = 0
KHO1 190922Z 32004KT 04/M01 A3001 RMK A01 T00371005  RH  074%=      5-min Rain = 0
KHO1 190923Z 32004KT 04/M01 A3001 RMK A01 T00361005  RH  074%=      5-min Rain = 0
KHO1 190924Z 33003KT 04/M01 A3001 RMK A01 T00361005  RH  074%=      5-min Rain = 0
KHO1 190925Z 33003KT 04/M01 A3001 RMK A01 T00351005  RH  075%=      5-min Rain = 0
KHO1 190926Z 33003KT 04/M01 A3001 RMK A01 T00351005  RH  075%=      5-min Rain = 0
KHO1 190927Z 33003KT 04/M01 A3001 RMK A01 T00351005  RH  075%=      5-min Rain = 0
KHO1 190928Z 33003KT 04/M00 A3001 RMK A01 T00361004  RH  075%=      5-min Rain = 0
KHO1 190929Z 33003KT 04/M00 A3001 RMK A01 T00361004  RH  075%=      5-min Rain = 0
KHO1 190930Z 34003KT 04/M00 A3001 RMK A01 T00371003  RH  075%=      5-min Rain = 0
KHO1 190931Z 35003KT 04/M00 A3001 RMK A01 T00381002  RH  075%=      5-min Rain = 0
KHO1 190932Z 35003KT 04/M00 A3001 RMK A01 T00381003  RH  075%=      5-min Rain = 0
KHO1 190933Z 35003KT 04/M00 A3001 RMK A01 T00391002  RH  075%=      5-min Rain = 0
KHO1 190934Z 00003KT 04/M00 A3001 RMK A01 T00401002  RH  074%=      5-min Rain = 0
KHO1 190935Z 36003KT 04/M00 A3001 RMK A01 T00411003  RH  073%=      5-min Rain = 0
KHO1 190936Z 35003KT 04/M00 A3001 RMK A01 T00421004  RH  072%=      5-min Rain = 0
KHO1 190937Z 35003KT 04/M01 A3001 RMK A01 T00421005  RH  072%=      5-min Rain = 0
KHO1 190938Z 35003KT 04/M01 A3001 RMK A01 T00421005  RH  072%=      5-min Rain = 0
KHO1 190939Z 34002KT 04/M01 A3001 RMK A01 T00411006  RH  072%=      5-min Rain = 0
KHO1 190940Z 34002KT 04/M01 A3001 RMK A01 T00401006  RH  072%=      5-min Rain = 0
KHO1 190941Z 33002KT 04/M01 A3001 RMK A01 T00391005  RH  073%=      5-min Rain = 0
KHO1 190942Z 33002KT 04/M00 A3001 RMK A01 T00391004  RH  073%=      5-min Rain = 0
KHO1 190943Z 32003KT 04/M00 A3001 RMK A01 T00401002  RH  074%=      5-min Rain = 0
KHO1 190944Z 32003KT 04/M00 A3001 RMK A01 T00411001  RH  074%=      5-min Rain = 0
KHO1 190945Z 32002KT 04/M00 A3001 RMK A01 T00421001  RH  074%=      5-min Rain = 0
KHO1 190946Z 32002KT 04/M00 A3001 RMK A01 T00421002  RH  073%=      5-min Rain = 0
KHO1 190947Z 32003KT 04/M00 A3001 RMK A01 T00421002  RH  073%=      5-min Rain = 0
KHO1 190948Z 31003KT 04/M00 A3001 RMK A01 T00421002  RH  073%=      5-min Rain = 0
KHO1 190949Z 31002KT 04/M00 A3001 RMK A01 T00421003  RH  072%=      5-min Rain = 0
KHO1 190950Z 31002KT 04/M00 A3001 RMK A01 T00421004  RH  072%=      5-min Rain = 0
KHO1 190951Z 32003KT 04/M00 A3001 RMK A01 T00411004  RH  073%=      5-min Rain = 0
KHO1 190952Z 32003KT 04/M00 A3001 RMK A01 T00411003  RH  073%=      5-min Rain = 0
KHO1 190953Z 32003KT 04/M00 A3001 RMK A01 T00401003  RH  073%=      5-min Rain = 0
KHO1 190954Z 33003KT 04/M00 A3001 RMK A01 T00401003  RH  073%=      5-min Rain = 0
KHO1 190955Z 33003KT 04/M00 A3001 RMK A01 T00401003  RH  073%=      5-min Rain = 0
KHO1 190956Z 34003KT 04/M00 A3001 RMK A01 T00391004  RH  074%=      5-min Rain = 0
KHO1 190957Z 34003KT 04/M00 A3001 RMK A01 T00391004  RH  074%=      5-min Rain = 0
KHO1 190958Z 34003KT 04/M00 A3001 RMK A01 T00381004  RH  074%=      5-min Rain = 0
KHO1 190959Z 35003KT 04/M01 A3001 RMK A01 T00371005  RH  074%=      5-min Rain = 0
KHO1 191000Z 35002KT 04/M01 A3001 RMK A01 T00371005  RH  074%=      5-min Rain = 0
KHO1 191001Z 35003KT 04/M01 A3001 RMK A01 T00361005  RH  075%=      5-min Rain = 0
KHO1 191002Z 34003KT 04/M00 A3001 RMK A01 T00361003  RH  075%=      5-min Rain = 0
KHO1 191003Z 34004KT 04/M00 A3001 RMK A01 T00361002  RH  076%=      5-min Rain = 0
KHO1 191004Z 35004KT 04/M00 A3001 RMK A01 T00371002  RH  076%=      5-min Rain = 0
KHO1 191005Z 34004KT 04/M00 A3001 RMK A01 T00371002  RH  075%=      5-min Rain = 0
KHO1 191006Z 34004KT 04/M00 A3001 RMK A01 T00371003  RH  075%=      5-min Rain = 0
KHO1 191007Z 34005KT 04/M00 A3001 RMK A01 T00361004  RH  075%=      5-min Rain = 0
KHO1 191008Z 34004KT 04/M00 A3001 RMK A01 T00361004  RH  075%=      5-min Rain = 0
KHO1 191009Z 34005KT 04/M00 A3001 RMK A01 T00361002  RH  076%=      5-min Rain = 0
KHO1 191010Z 34005KT 04/M00 A3001 RMK A01 T00361002  RH  076%=      5-min Rain = 0
KHO1 191011Z 34004KT 04/M00 A3001 RMK A01 T00371002  RH  075%=      5-min Rain = 0
KHO1 191012Z 35004KT 04/M00 A3001 RMK A01 T00381003  RH  075%=      5-min Rain = 0
KHO1 191013Z 35004KT 04/M00 A3001 RMK A01 T00381002  RH  075%=      5-min Rain = 0
KHO1 191014Z 35003KT 04/M00 A3001 RMK A01 T00401002  RH  074%=      5-min Rain = 0
KHO1 191015Z 35003KT 04/M00 A3001 RMK A01 T00411002  RH  073%=      5-min Rain = 0
KHO1 191016Z 35003KT 04/M00 A3001 RMK A01 T00411003  RH  073%=      5-min Rain = 0
KHO1 191017Z 35003KT 04/M00 A30 RMK A01 T00421003  RH  073%=      5-min Rain = 0
KHO1 191018Z 35003KT 04/M00 A30 RMK A01 T00421003  RH  073%=      5-min Rain = 0
KHO1 191019Z 34003KT 04/M00 A30 RMK A01 T00411004  RH  072%=      5-min Rain = 0
KHO1 191020Z 34003KT 04/M00 A30 RMK A01 T00411004  RH  072%=      5-min Rain = 0
KHO1 191021Z 34003KT 04/M00 A30 RMK A01 T00411004  RH  072%=      5-min Rain = 0
KHO1 191022Z 34003KT 04/M00 A30 RMK A01 T00411004  RH  072%=      5-min Rain = 0
KHO1 191023Z 34003KT 04/M00 A30 RMK A01 T00411004  RH  073%=      5-min Rain = 0
KHO1 191024Z 34003KT 04/M00 A30 RMK A01 T00411003  RH  073%=      5-min Rain = 0
KHO1 191025Z 34004KT 04/M00 A30 RMK A01 T00411003  RH  073%=      5-min Rain = 0
KHO1 191026Z 34003KT 04/M00 A30 RMK A01 T00421003  RH  073%=      5-min Rain = 0
KHO1 191027Z 34003KT 04/M00 A3001 RMK A01 T00421003  RH  073%=      5-min Rain = 0
KHO1 191028Z 35003KT 04/M00 A30 RMK A01 T00421004  RH  072%=      5-min Rain = 0
KHO1 191029Z 35003KT 04/M00 A30 RMK A01 T00411004  RH  073%=      5-min Rain = 0
KHO1 191030Z 00003KT 04/M00 A30 RMK A01 T00411004  RH  072%=      5-min Rain = 0
KHO1 191031Z 00003KT 04/M00 A30 RMK A01 T00421004  RH  072%=      5-min Rain = 0
KHO1 191032Z 00004KT 04/M00 A30 RMK A01 T00421004  RH  072%=      5-min Rain = 0
KHO1 191033Z 00004KT 04/M01 A30 RMK A01 T00421005  RH  071%=      5-min Rain = 0
KHO1 191034Z 00004KT 04/M01 A30 RMK A01 T00411006  RH  071%=      5-min Rain = 0
KHO1 191035Z 00004KT 04/M01 A30 RMK A01 T00421006  RH  071%=      5-min Rain = 0
KHO1 191036Z 00004KT 04/M01 A30 RMK A01 T00431006  RH  070%=      5-min Rain = 0
KHO1 191037Z 36004KT 05/M01 A30 RMK A01 T00451006  RH  069%=      5-min Rain = 0
KHO1 191038Z 00004KT 05/M01 A30 RMK A01 T00461006  RH  069%=      5-min Rain = 0
KHO1 191039Z 00004KT 05/M01 A30 RMK A01 T00471006  RH  068%=      5-min Rain = 0
KHO1 191040Z 00004KT 05/M01 A30 RMK A01 T00481006  RH  068%=      5-min Rain = 0
KHO1 191041Z 00004KT 05/M01 A30 RMK A01 T00481006  RH  068%=      5-min Rain = 0
KHO1 191042Z 00004KT 05/M01 A30 RMK A01 T00481006  RH  068%=      5-min Rain = 0
KHO1 191043Z 00004KT 05/M01 A30 RMK A01 T00481006  RH  068%=      5-min Rain = 0
KHO1 191044Z 00004KT 05/M01 A30 RMK A01 T00491006  RH  068%=      5-min Rain = 0
KHO1 191045Z 00004KT 05/M01 A30 RMK A01 T00491006  RH  067%=      5-min Rain = 0
KHO1 191046Z 00004KT 05/M01 A30 RMK A01 T00491006  RH  067%=      5-min Rain = 0
KHO1 191047Z 00004KT 05/M01 A30 RMK A01 T00491007  RH  068%=      5-min Rain = 0
KHO1 191048Z 01003KT 05/M01 A30 RMK A01 T00481007  RH  068%=      5-min Rain = 0
KHO1 191049Z 01004KT 05/M01 A30 RMK A01 T00471006  RH  068%=      5-min Rain = 0
KHO1 191050Z 01004KT 05/M01 A30 RMK A01 T00471006  RH  068%=      5-min Rain = 0
KHO1 191051Z 02004KT 05/M01 A30 RMK A01 T00471006  RH  068%=      5-min Rain = 0
KHO1 191052Z 02003KT 05/M01 A30 RMK A01 T00481006  RH  068%=      5-min Rain = 0
KHO1 191053Z 02003KT 05/M01 A30 RMK A01 T00491006  RH  068%=      5-min Rain = 0
KHO1 191054Z 02003KT 05/M01 A30 RMK A01 T00491006  RH  067%=      5-min Rain = 0
KHO1 191055Z 02003KT 05/M01 A30 RMK A01 T00491007  RH  067%=      5-min Rain = 0
KHO1 191056Z 02003KT 05/M01 A30 RMK A01 T00491007  RH  067%=      5-min Rain = 0
KHO1 191057Z 01004KT 05/M01 A30 RMK A01 T00481006  RH  068%=      5-min Rain = 0
KHO1 191058Z 01004KT 05/M01 A30 RMK A01 T00491006  RH  067%=      5-min Rain = 0
KHO1 191059Z 01004KT 05/M01 A30 RMK A01 T00491006  RH  067%=      5-min Rain = 0
KHO1 191100Z 01003KT 05/M01 A30 RMK A01 T00501006  RH  067%=      5-min Rain = 0
KHO1 191101Z 36003KT 05/M01 A30 RMK A01 T00511006  RH  067%=      5-min Rain = 0
KHO1 191102Z 35003KT 05/M01 A30 RMK A01 T00511006  RH  067%=      5-min Rain = 0
KHO1 191103Z 35003KT 05/M01 A30 RMK A01 T00501007  RH  067%=      5-min Rain = 0
KHO1 191104Z 35003KT 05/M01 A30 RMK A01 T00501007  RH  067%=      5-min Rain = 0
KHO1 191105Z 35002KT 05/M01 A30 RMK A01 T00501007  RH  067%=      5-min Rain = 0
KHO1 191106Z 35003KT 05/M01 A30 RMK A01 T00491006  RH  067%=      5-min Rain = 0
KHO1 191107Z 35003KT 05/M01 A30 RMK A01 T00491006  RH  067%=      5-min Rain = 0
KHO1 191108Z 34003KT 05/M01 A30 RMK A01 T00491006  RH  067%=      5-min Rain = 0
KHO1 191109Z 34003KT 05/M01 A30 RMK A01 T00491006  RH  068%=      5-min Rain = 0
KHO1 191110Z 35003KT 05/M01 A30 RMK A01 T00481006  RH  068%=      5-min Rain = 0
KHO1 191111Z 35003KT 05/M01 A30 RMK A01 T00481007  RH  068%=      5-min Rain = 0
KHO1 191112Z 35003KT 05/M01 A30 RMK A01 T00471006  RH  068%=      5-min Rain = 0
KHO1 191113Z 35003KT 05/M01 A30 RMK A01 T00461007  RH  069%=      5-min Rain = 0
KHO1 191114Z 35003KT 04/M01 A30 RMK A01 T00441007  RH  069%=      5-min Rain = 0
KHO1 191115Z 35003KT 04/M01 A30 RMK A01 T00431007  RH  070%=      5-min Rain = 0
KHO1 191116Z 35003KT 04/M01 A30 RMK A01 T00421007  RH  070%=      5-min Rain = 0
KHO1 191117Z 00002KT 04/M01 A30 RMK A01 T00411007  RH  071%=      5-min Rain = 0
KHO1 191118Z 36002KT 04/M01 A30 RMK A01 T00401007  RH  071%=      5-min Rain = 0
KHO1 191119Z 35002KT 04/M01 A30 RMK A01 T00401007  RH  071%=      5-min Rain = 0
KHO1 191120Z 35002KT 04/M01 A30 RMK A01 T00401007  RH  072%=      5-min Rain = 0
KHO1 191121Z 00002KT 04/M01 A30 RMK A01 T00401007  RH  072%=      5-min Rain = 0
KHO1 191122Z 35003KT 04/M01 A30 RMK A01 T00411007  RH  071%=      5-min Rain = 0
KHO1 191123Z 35003KT 04/M01 A30 RMK A01 T00411006  RH  071%=      5-min Rain = 0
KHO1 191124Z 35003KT 04/M01 A30 RMK A01 T00411007  RH  071%=      5-min Rain = 0
KHO1 191125Z 35003KT 04/M01 A30 RMK A01 T00411007  RH  071%=      5-min Rain = 0
KHO1 191126Z 35003KT 04/M01 A2999 RMK A01 T00411007  RH  071%=      5-min Rain = 0
KHO1 191127Z 34003KT 04/M01 A2999 RMK A01 T00411006  RH  071%=      5-min Rain = 0
KHO1 191128Z 35002KT 04/M01 A2999 RMK A01 T00411007  RH  071%=      5-min Rain = 0
KHO1 191129Z 00003KT 04/M01 A2999 RMK A01 T00401007  RH  071%=      5-min Rain = 0
KHO1 191130Z 36003KT 04/M01 A2999 RMK A01 T00401007  RH  072%=      5-min Rain = 0
KHO1 191131Z 35003KT 04/M01 A2999 RMK A01 T00401006  RH  072%=      5-min Rain = 0
KHO1 191132Z 35003KT 04/M01 A2999 RMK A01 T00391007  RH  072%=      5-min Rain = 0
KHO1 191133Z 34003KT 04/M01 A2999 RMK A01 T00391006  RH  072%=      5-min Rain = 0
KHO1 191134Z 34003KT 04/M01 A2999 RMK A01 T00381006  RH  073%=      5-min Rain = 0
KHO1 191135Z 35003KT 04/M01 A2999 RMK A01 T00381006  RH  073%=      5-min Rain = 0
KHO1 191136Z 34003KT 04/M01 A2999 RMK A01 T00381007  RH  073%=      5-min Rain = 0
KHO1 191137Z 35003KT 04/M01 A2999 RMK A01 T00381007  RH  073%=      5-min Rain = 0
KHO1 191138Z 35003KT 04/M01 A2999 RMK A01 T00371007  RH  073%=      5-min Rain = 0
KHO1 191139Z 35003KT 04/M01 A2999 RMK A01 T00371007  RH  073%=      5-min Rain = 0
KHO1 191140Z 35003KT 04/M01 A2999 RMK A01 T00371007  RH  073%=      5-min Rain = 0
KHO1 191141Z 35003KT 04/M01 A2999 RMK A01 T00371007  RH  073%=      5-min Rain = 0
KHO1 191142Z 35003KT 04/M01 A2999 RMK A01 T00371007  RH  073%=      5-min Rain = 0
KHO1 191143Z 35002KT 04/M01 A2999 RMK A01 T00361007  RH  073%=      5-min Rain = 0
KHO1 191144Z 35002KT 04/M01 A2999 RMK A01 T00361007  RH  073%=      5-min Rain = 0
KHO1 191145Z 35002KT 04/M01 A2999 RMK A01 T00361007  RH  074%=      5-min Rain = 0
KHO1 191146Z 35002KT 04/M01 A30 RMK A01 T00351007  RH  074%=      5-min Rain = 0
KHO1 191147Z 35002KT 04/M01 A30 RMK A01 T00351007  RH  074%=      5-min Rain = 0
KHO1 191148Z 35002KT 04/M01 A2999 RMK A01 T00351007  RH  074%=      5-min Rain = 0
KHO1 191149Z 35002KT 04/M01 A2999 RMK A01 T00351007  RH  074%=      5-min Rain = 0
KHO1 191150Z 35002KT 04/M01 A2999 RMK A01 T00351007  RH  074%=      5-min Rain = 0
KHO1 191151Z 35002KT 04/M01 A2999 RMK A01 T00351006  RH  074%=      5-min Rain = 0
KHO1 191152Z 35002KT 04/M01 A2999 RMK A01 T00351006  RH  074%=      5-min Rain = 0
KHO1 191153Z 35002KT 04/M01 A2999 RMK A01 T00351005  RH  075%=      5-min Rain = 0
KHO1 191154Z 34003KT 04/M01 A2999 RMK A01 T00351005  RH  075%=      5-min Rain = 0
KHO1 191155Z 34003KT 04/M01 A2999 RMK A01 T00351005  RH  075%=      5-min Rain = 0
KHO1 191156Z 34002KT 04/M01 A2999 RMK A01 T00361005  RH  075%=      5-min Rain = 0
KHO1 191157Z 35002KT 04/M01 A2999 RMK A01 T00351005  RH  075%=      5-min Rain = 0
KHO1 191158Z 35002KT 04/M01 A2999 RMK A01 T00351005  RH  075%=      5-min Rain = 0
KHO1 191159Z 35003KT 04/M01 A2999 RMK A01 T00351006  RH  075%=      5-min Rain = 0
KHO1 191200Z 34003KT 04/M01 A2999 RMK A01 T00351006  RH  075%=      5-min Rain = 0
KHO1 191201Z 34003KT 04/M01 A2999 RMK A01 T00351006  RH  075%=      5-min Rain = 0
KHO1 191202Z 34002KT 04/M01 A2999 RMK A01 T00351007  RH  074%=      5-min Rain = 0
KHO1 191203Z 35002KT 04/M01 A2999 RMK A01 T00351007  RH  074%=      5-min Rain = 0
KHO1 191204Z 35002KT 04/M01 A2999 RMK A01 T00351007  RH  074%=      5-min Rain = 0
KHO1 191205Z 00002KT 03/M01 A2999 RMK A01 T00341007  RH  074%=      5-min Rain = 0
KHO1 191206Z 00002KT 03/M01 A2999 RMK A01 T00341007  RH  075%=      5-min Rain = 0
KHO1 191207Z 00002KT 03/M01 A2999 RMK A01 T00341007  RH  075%=      5-min Rain = 0
KHO1 191208Z 36002KT 03/M01 A2999 RMK A01 T00341007  RH  075%=      5-min Rain = 0
KHO1 191209Z 35002KT 03/M01 A2999 RMK A01 T00341007  RH  075%=      5-min Rain = 0
KHO1 191210Z 35002KT 03/M01 A2999 RMK A01 T00341007  RH  075%=      5-min Rain = 0
KHO1 191211Z 35003KT 03/M01 A2999 RMK A01 T00341007  RH  074%=      5-min Rain = 0
KHO1 191212Z 35003KT 03/M01 A2999 RMK A01 T00341007  RH  075%=      5-min Rain = 0
KHO1 191213Z 35002KT 03/M01 A2999 RMK A01 T00341007  RH  075%=      5-min Rain = 0
KHO1 191214Z 35002KT 03/M01 A2999 RMK A01 T00341007  RH  074%=      5-min Rain = 0
KHO1 191215Z 35003KT 04/M01 A2999 RMK A01 T00351007  RH  074%=      5-min Rain = 0
KHO1 191216Z 35003KT 04/M01 A2999 RMK A01 T00351006  RH  074%=      5-min Rain = 0
KHO1 191217Z 35002KT 04/M01 A2999 RMK A01 T00351006  RH  074%=      5-min Rain = 0
KHO1 191218Z 35002KT 04/M01 A2999 RMK A01 T00351007  RH  074%=      5-min Rain = 0
KHO1 191219Z 36003KT 03/M01 A2999 RMK A01 T00341007  RH  075%=      5-min Rain = 0
KHO1 191220Z 00003KT 03/M01 A2999 RMK A01 T00341007  RH  075%=      5-min Rain = 0
KHO1 191221Z 00003KT 03/M01 A2999 RMK A01 T00341007  RH  074%=      5-min Rain = 0
KHO1 191222Z 00003KT 03/M01 A2999 RMK A01 T00341007  RH  075%=      5-min Rain = 0
KHO1 191223Z 00003KT 03/M01 A2999 RMK A01 T00331007  RH  075%=      5-min Rain = 0
KHO1 191224Z 36003KT 03/M01 A2999 RMK A01 T00331007  RH  075%=      5-min Rain = 0
KHO1 191225Z 35003KT 03/M01 A2999 RMK A01 T00331007  RH  075%=      5-min Rain = 0
KHO1 191226Z 35003KT 03/M01 A2999 RMK A01 T00321007  RH  075%=      5-min Rain = 0
KHO1 191227Z 35003KT 03/M01 A2999 RMK A01 T00321007  RH  075%=      5-min Rain = 0
KHO1 191228Z 35003KT 03/M01 A2999 RMK A01 T00331007  RH  075%=      5-min Rain = 0
KHO1 191229Z 35003KT 03/M01 A2999 RMK A01 T00331007  RH  075%=      5-min Rain = 0
KHO1 191230Z 35002KT 03/M01 A2999 RMK A01 T00341007  RH  075%=      5-min Rain = 0
KHO1 191231Z 35002KT 03/M01 A2999 RMK A01 T00341007  RH  075%=      5-min Rain = 0
KHO1 191232Z 35002KT 03/M01 A2999 RMK A01 T00341007  RH  074%=      5-min Rain = 0
KHO1 191233Z 35002KT 03/M01 A2999 RMK A01 T00341007  RH  074%=      5-min Rain = 0
KHO1 191234Z 35002KT 03/M01 A2999 RMK A01 T00341007  RH  074%=      5-min Rain = 0
KHO1 191235Z 35002KT 03/M01 A2999 RMK A01 T00341007  RH  074%=      5-min Rain = 0
KHO1 191236Z 35002KT 03/M01 A2999 RMK A01 T00341007  RH  074%=      5-min Rain = 0
KHO1 191237Z 35002KT 03/M01 A2999 RMK A01 T00341007  RH  075%=      5-min Rain = 0
KHO1 191238Z 35002KT 03/M01 A2999 RMK A01 T00341007  RH  075%=      5-min Rain = 0
KHO1 191239Z 35002KT 03/M01 A2999 RMK A01 T00341007  RH  075%=      5-min Rain = 0
KHO1 191240Z 35002KT 03/M01 A2999 RMK A01 T00341007  RH  075%=      5-min Rain = 0
KHO1 191241Z 35002KT 03/M01 A2999 RMK A01 T00341008  RH  074%=      5-min Rain = 0
KHO1 191242Z 34003KT 03/M01 A2999 RMK A01 T00341008  RH  074%=      5-min Rain = 0
KHO1 191243Z 33003KT 03/M01 A2999 RMK A01 T00341007  RH  074%=      5-min Rain = 0
KHO1 191244Z 32003KT 03/M01 A2999 RMK A01 T00341007  RH  075%=      5-min Rain = 0
KHO1 191245Z 32002KT 03/M01 A2999 RMK A01 T00331006  RH  075%=      5-min Rain = 0
KHO1 191246Z 33002KT 03/M01 A2999 RMK A01 T00321006  RH  076%=      5-min Rain = 0
KHO1 191247Z 33002KT 03/M01 A2999 RMK A01 T00321007  RH  076%=      5-min Rain = 0
KHO1 191248Z 33002KT 03/M01 A2999 RMK A01 T00311007  RH  076%=      5-min Rain = 0
KHO1 191249Z 32002KT 03/M01 A2999 RMK A01 T00311008  RH  076%=      5-min Rain = 0
KHO1 191250Z 32002KT 03/M01 A2999 RMK A01 T00301008  RH  076%=      5-min Rain = 0
KHO1 191251Z 33003KT 03/M01 A2999 RMK A01 T00301009  RH  076%=      5-min Rain = 0
KHO1 191252Z 33002KT 03/M01 A2999 RMK A01 T00291009  RH  076%=      5-min Rain = 0
KHO1 191253Z 33002KT 03/M01 A2999 RMK A01 T00291009  RH  076%=      5-min Rain = 0
KHO1 191254Z 33002KT 03/M01 A2999 RMK A01 T00281009  RH  076%=      5-min Rain = 0
KHO1 191255Z 34002KT 03/M01 A2999 RMK A01 T00281009  RH  077%=      5-min Rain = 0
KHO1 191256Z 34002KT 03/M01 A2999 RMK A01 T00281009  RH  077%=      5-min Rain = 0
KHO1 191257Z 34002KT 03/M01 A2999 RMK A01 T00271009  RH  077%=      5-min Rain = 0
KHO1 191258Z 34002KT 03/M01 A2999 RMK A01 T00271009  RH  077%=      5-min Rain = 0
KHO1 191259Z 35001KT 03/M01 A2999 RMK A01 T00271009  RH  077%=      5-min Rain = 0
KHO1 191300Z 35001KT 03/M01 A2999 RMK A01 T00271009  RH  077%=      5-min Rain = 0
KHO1 191301Z 34001KT 03/M01 A2999 RMK A01 T00271009  RH  077%=      5-min Rain = 0
KHO1 191302Z 34002KT 03/M01 A2999 RMK A01 T00271009  RH  077%=      5-min Rain = 0
KHO1 191303Z 34002KT 03/M01 A2999 RMK A01 T00281008  RH  077%=      5-min Rain = 0
KHO1 191304Z 34002KT 03/M01 A2999 RMK A01 T00281009  RH  077%=      5-min Rain = 0
KHO1 191305Z 33002KT 03/M01 A2999 RMK A01 T00271009  RH  077%=      5-min Rain = 0
KHO1 191306Z 33002KT 03/M01 A2999 RMK A01 T00271008  RH  077%=      5-min Rain = 0
KHO1 191307Z 33002KT 03/M01 A2999 RMK A01 T00281008  RH  077%=      5-min Rain = 0
KHO1 191308Z 33002KT 03/M01 A2999 RMK A01 T00281007  RH  077%=      5-min Rain = 0
KHO1 191309Z 33003KT 03/M01 A2999 RMK A01 T00291007  RH  077%=      5-min Rain = 0
KHO1 191310Z 34003KT 03/M01 A2999 RMK A01 T00291007  RH  077%=      5-min Rain = 0
KHO1 191311Z 34003KT 03/M01 A2999 RMK A01 T00291007  RH  077%=      5-min Rain = 0
KHO1 191312Z 34003KT 03/M01 A2999 RMK A01 T00291007  RH  077%=      5-min Rain = 0
KHO1 191313Z 34003KT 03/M01 A2999 RMK A01 T00291007  RH  077%=      5-min Rain = 0
KHO1 191314Z 34003KT 03/M01 A2999 RMK A01 T00281008  RH  077%=      5-min Rain = 0
KHO1 191315Z 34003KT 03/M01 A2999 RMK A01 T00271008  RH  078%=      5-min Rain = 0
KHO1 191316Z 34003KT 03/M01 A2999 RMK A01 T00261008  RH  078%=      5-min Rain = 0
KHO1 191317Z 34003KT 03/M01 A2999 RMK A01 T00251008  RH  079%=      5-min Rain = 0
KHO1 191318Z 34003KT 02/M01 A2999 RMK A01 T00241008  RH  079%=      5-min Rain = 0
KHO1 191319Z 34003KT 02/M01 A2999 RMK A01 T00241007  RH  080%=      5-min Rain = 0
KHO1 191320Z 35003KT 02/M01 A2999 RMK A01 T00241007  RH  080%=      5-min Rain = 0
KHO1 191321Z 35003KT 02/M01 A2999 RMK A01 T00241007  RH  080%=      5-min Rain = 0
KHO1 191322Z 00002KT 02/M01 A2999 RMK A01 T00241007  RH  080%=      5-min Rain = 0
KHO1 191323Z 00003KT 03/M01 A2999 RMK A01 T00251006  RH  080%=      5-min Rain = 0
KHO1 191324Z 36003KT 03/M01 A2999 RMK A01 T00251006  RH  080%=      5-min Rain = 0
KHO1 191325Z 00002KT 03/M01 A30 RMK A01 T00251007  RH  079%=      5-min Rain = 0
KHO1 191326Z 36002KT 03/M01 A30 RMK A01 T00251007  RH  079%=      5-min Rain = 0
KHO1 191327Z 35003KT 03/M01 A30 RMK A01 T00251008  RH  079%=      5-min Rain = 0
KHO1 191328Z 35003KT 02/M01 A30 RMK A01 T00241007  RH  080%=      5-min Rain = 0
KHO1 191329Z 34003KT 03/M01 A30 RMK A01 T00251007  RH  080%=      5-min Rain = 0
KHO1 191330Z 34003KT 03/M01 A30 RMK A01 T00261006  RH  080%=      5-min Rain = 0
KHO1 191331Z 34003KT 03/M01 A30 RMK A01 T00271006  RH  079%=      5-min Rain = 0
KHO1 191332Z 33002KT 03/M01 A30 RMK A01 T00271006  RH  079%=      5-min Rain = 0
KHO1 191333Z 34003KT 03/M01 A30 RMK A01 T00281006  RH  078%=      5-min Rain = 0
KHO1 191334Z 34003KT 03/M01 A30 RMK A01 T00281006  RH  078%=      5-min Rain = 0
KHO1 191335Z 34002KT 03/M01 A30 RMK A01 T00281007  RH  078%=      5-min Rain = 0
KHO1 191336Z 34002KT 03/M01 A30 RMK A01 T00281007  RH  077%=      5-min Rain = 0
KHO1 191337Z 34002KT 03/M01 A30 RMK A01 T00281007  RH  078%=      5-min Rain = 0
KHO1 191338Z 34002KT 03/M01 A30 RMK A01 T00281007  RH  077%=      5-min Rain = 0
KHO1 191339Z 34002KT 03/M01 A30 RMK A01 T00281008  RH  077%=      5-min Rain = 0
KHO1 191340Z 34002KT 03/M01 A30 RMK A01 T00281008  RH  077%=      5-min Rain = 0
KHO1 191341Z 34001KT 03/M01 A30 RMK A01 T00281008  RH  077%=      5-min Rain = 0
KHO1 191342Z 33002KT 03/M01 A30 RMK A01 T00281008  RH  077%=      5-min Rain = 0
KHO1 191343Z 33002KT 03/M01 A30 RMK A01 T00281007  RH  078%=      5-min Rain = 0
KHO1 191344Z 33001KT 03/M01 A30 RMK A01 T00281007  RH  078%=      5-min Rain = 0
KHO1 191345Z 32001KT 03/M01 A30 RMK A01 T00281008  RH  078%=      5-min Rain = 0
KHO1 191346Z 32002KT 03/M01 A30 RMK A01 T00271008  RH  077%=      5-min Rain = 0
KHO1 191347Z 32001KT 03/M01 A30 RMK A01 T00271009  RH  077%=      5-min Rain = 0
KHO1 191348Z 32002KT 03/M01 A30 RMK A01 T00271009  RH  077%=      5-min Rain = 0
KHO1 191349Z 32002KT 03/M01 A30 RMK A01 T00271009  RH  077%=      5-min Rain = 0
KHO1 191350Z 32001KT 03/M01 A30 RMK A01 T00281008  RH  077%=      5-min Rain = 0
KHO1 191351Z 32001KT 03/M01 A30 RMK A01 T00291008  RH  077%=      5-min Rain = 0
KHO1 191352Z 32001KT 03/M01 A30 RMK A01 T00301007  RH  077%=      5-min Rain = 0
KHO1 191353Z 32001KT 03/M01 A30 RMK A01 T00321006  RH  076%=      5-min Rain = 0
KHO1 191354Z 32001KT 03/M01 A30 RMK A01 T00331006  RH  076%=      5-min Rain = 0
KHO1 191355Z 31001KT 03/M01 A30 RMK A01 T00331006  RH  076%=      5-min Rain = 0
KHO1 191356Z 31001KT 03/M01 A30 RMK A01 T00341005  RH  076%=      5-min Rain = 0
KHO1 191357Z 31001KT 04/M00 A30 RMK A01 T00351004  RH  076%=      5-min Rain = 0
KHO1 191358Z 31001KT 04/M00 A30 RMK A01 T00361003  RH  076%=      5-min Rain = 0
KHO1 191359Z 31001KT 04/M00 A30 RMK A01 T00371002  RH  076%=      5-min Rain = 0
KHO1 191400Z 31001KT 04/M00 A30 RMK A01 T00381001  RH  076%=      5-min Rain = 0
KHO1 191401Z 31002KT 04/00 A30 RMK A01 T00390001  RH  076%=      5-min Rain = 0
KHO1 191402Z 31001KT 04/00 A30 RMK A01 T00410002  RH  076%=      5-min Rain = 0
KHO1 191403Z 30001KT 04/00 A30 RMK A01 T00420003  RH  076%=      5-min Rain = 0
KHO1 191404Z 29002KT 04/00 A30 RMK A01 T00430002  RH  075%=      5-min Rain = 0
KHO1 191405Z 29002KT 04/00 A30 RMK A01 T00430000  RH  074%=      5-min Rain = 0
KHO1 191406Z 29002KT 04/00 A30 RMK A01 T00440000  RH  073%=      5-min Rain = 0
KHO1 191407Z 29001KT 05/00 A30 RMK A01 T00450001  RH  073%=      5-min Rain = 0
KHO1 191408Z 29001KT 05/00 A30 RMK A01 T00450000  RH  073%=      5-min Rain = 0
KHO1 191409Z 29001KT 05/M00 A30 RMK A01 T00451001  RH  072%=      5-min Rain = 0
KHO1 191410Z 29001KT 05/00 A30 RMK A01 T00460001  RH  073%=      5-min Rain = 0
KHO1 191411Z 29001KT 05/00 A30 RMK A01 T00460002  RH  073%=      5-min Rain = 0
KHO1 191412Z 30001KT 05/00 A30 RMK A01 T00470002  RH  073%=      5-min Rain = 0
KHO1 191413Z 30001KT 05/00 A30 RMK A01 T00470002  RH  073%=      5-min Rain = 0
KHO1 191414Z 30001KT 05/00 A3001 RMK A01 T00480003  RH  073%=      5-min Rain = 0
KHO1 191415Z 30001KT 05/00 A3001 RMK A01 T00490004  RH  073%=      5-min Rain = 0
KHO1 191416Z 30001KT 05/01 A3001 RMK A01 T00500005  RH  073%=      5-min Rain = 0
KHO1 191417Z 30001KT 05/01 A3001 RMK A01 T00510007  RH  073%=      5-min Rain = 0
KHO1 191418Z 30001KT 05/01 A3001 RMK A01 T00530009  RH  073%=      5-min Rain = 0
KHO1 191419Z 30001KT 06/01 A3001 RMK A01 T00550009  RH  072%=      5-min Rain = 0
KHO1 191420Z 30000KT 06/01 A3001 RMK A01 T00550007  RH  071%=      5-min Rain = 0
KHO1 191421Z 30000KT 06/01 A3001 RMK A01 T00550007  RH  071%=      5-min Rain = 0
KHO1 191422Z 00000KT 06/01 A3001 RMK A01 T00560007  RH  071%=      5-min Rain = 0
KHO1 191423Z 00000KT 06/01 A3001 RMK A01 T00580010  RH  071%=      5-min Rain = 0
KHO1 191424Z 00000KT 06/01 A3001 RMK A01 T00620013  RH  071%=      5-min Rain = 0
KHO1 191425Z 00000KT 06/01 A3001 RMK A01 T00640014  RH  070%=      5-min Rain = 0
KHO1 191426Z 00000KT 07/01 A3001 RMK A01 T00670013  RH  069%=      5-min Rain = 0
KHO1 191427Z 00000KT 07/01 A3001 RMK A01 T00690011  RH  067%=      5-min Rain = 0
KHO1 191428Z 00000KT 07/01 A3001 RMK A01 T00690010  RH  066%=      5-min Rain = 0
KHO1 191429Z 00000KT 07/01 A3001 RMK A01 T00720012  RH  066%=      5-min Rain = 0
KHO1 191430Z 00000KT 07/01 A3001 RMK A01 T00740013  RH  065%=      5-min Rain = 0
KHO1 191431Z 00000KT 08/01 A3001 RMK A01 T00760012  RH  064%=      5-min Rain = 0
KHO1 191432Z 00000KT 08/01 A3001 RMK A01 T00780011  RH  063%=      5-min Rain = 0
KHO1 191433Z 00000KT 08/01 A3001 RMK A01 T00790011  RH  062%=      5-min Rain = 0
KHO1 191434Z 00000KT 08/01 A3001 RMK A01 T00800009  RH  061%=      5-min Rain = 0
KHO1 191435Z 29000KT 08/01 A3001 RMK A01 T00810009  RH  061%=      5-min Rain = 0
KHO1 191436Z 00000KT 08/01 A3001 RMK A01 T00820011  RH  061%=      5-min Rain = 0
KHO1 191437Z 00000KT 08/01 A3001 RMK A01 T00840011  RH  060%=      5-min Rain = 0
KHO1 191438Z 00000KT 09/01 A3001 RMK A01 T00850011  RH  060%=      5-min Rain = 0
KHO1 191439Z 00000KT 09/01 A3001 RMK A01 T00870012  RH  059%=      5-min Rain = 0
KHO1 191440Z 00000KT 09/01 A3001 RMK A01 T00890012  RH  058%=      5-min Rain = 0
KHO1 191441Z 29000KT 09/01 A3001 RMK A01 T00910011  RH  057%=      5-min Rain = 0
KHO1 191442Z 22001KT 09/01 A3001 RMK A01 T00930013  RH  057%=      5-min Rain = 0
KHO1 191443Z 15001KT 10/01 A3001 RMK A01 T00960014  RH  057%=      5-min Rain = 0
KHO1 191444Z 15001KT 10/01 A3001 RMK A01 T00970013  RH  056%=      5-min Rain = 0
KHO1 191445Z 16002KT 10/01 A3001 RMK A01 T00980010  RH  054%=      5-min Rain = 0
KHO1 191446Z 16003KT 10/01 A3001 RMK A01 T00980005  RH  052%=      5-min Rain = 0
KHO1 191447Z 16003KT 10/00 A3001 RMK A01 T00980002  RH  051%=      5-min Rain = 0
KHO1 191448Z 16003KT 10/00 A3001 RMK A01 T00980002  RH  051%=      5-min Rain = 0
KHO1 191449Z 16003KT 10/00 A3001 RMK A01 T00990002  RH  051%=      5-min Rain = 0
KHO1 191450Z 16003KT 10/00 A3001 RMK A01 T00990003  RH  051%=      5-min Rain = 0
KHO1 191451Z 16003KT 10/01 A3001 RMK A01 T01010007  RH  052%=      5-min Rain = 0
KHO1 191452Z 16003KT 10/01 A3001 RMK A01 T01020007  RH  051%=      5-min Rain = 0
KHO1 191453Z 16004KT 10/01 A3001 RMK A01 T01040005  RH  050%=      5-min Rain = 0
KHO1 191454Z 17004KT 11/00 A3001 RMK A01 T01050003  RH  049%=      5-min Rain = 0
KHO1 191455Z 16004KT 11/00 A3001 RMK A01 T01070003  RH  049%=      5-min Rain = 0
KHO1 191456Z 16004KT 11/00 A3001 RMK A01 T01080002  RH  048%=      5-min Rain = 0
KHO1 191457Z 16005KT 11/M00 A3001 RMK A01 T01101001  RH  046%=      5-min Rain = 0
KHO1 191458Z 16005KT 11/M00 A3001 RMK A01 T01101003  RH  046%=      5-min Rain = 0
KHO1 191459Z 17005KT 11/M00 A3001 RMK A01 T01101003  RH  045%=      5-min Rain = 0
KHO1 191500Z 16006KT 11/M00 A3001 RMK A01 T01111003  RH  045%=      5-min Rain = 0
KHO1 191501Z 17007KT 11/M00 A3001 RMK A01 T01131004  RH  045%=      5-min Rain = 0
KHO1 191502Z 16005KT 11/M01 A3001 RMK A01 T01121006  RH  044%=      5-min Rain = 0
KHO1 191503Z 16005KT 11/M00 A3001 RMK A01 T01131003  RH  045%=      5-min Rain = 0
KHO1 191504Z 17005KT 11/M00 A3001 RMK A01 T01131002  RH  045%=      5-min Rain = 0
KHO1 191505Z 17005KT 12/M00 A3001 RMK A01 T01151002  RH  045%=      5-min Rain = 0
KHO1 191506Z 16005KT 12/M00 A3001 RMK A01 T01151002  RH  044%=      5-min Rain = 0
KHO1 191507Z 17005KT 12/M00 A3001 RMK A01 T01151003  RH  044%=      5-min Rain = 0
KHO1 191508Z 17005KT 12/00 A3001 RMK A01 T011600-0  RH  045%=      5-min Rain = 0
KHO1 191509Z 17005KT 12/00 A3001 RMK A01 T01170000  RH  045%=      5-min Rain = 0
KHO1 191510Z 17005KT 12/00 A3001 RMK A01 T011700-0  RH  044%=      5-min Rain = 0
KHO1 191511Z 18005KT 12/M00 A3001 RMK A01 T01171001  RH  044%=      5-min Rain = 0
KHO1 191512Z 17004KT 12/00 A3001 RMK A01 T01190004  RH  045%=      5-min Rain = 0
KHO1 191513Z 18006KT 12/M00 A3001 RMK A01 T01201002  RH  043%=      5-min Rain = 0
KHO1 191514Z 17005KT 12/M00 A3001 RMK A01 T01201001  RH  043%=      5-min Rain = 0
KHO1 191515Z 17005KT 12/00 A3001 RMK A01 T01220002  RH  044%=      5-min Rain = 0
KHO1 191516Z 17005KT 12/M00 A3001 RMK A01 T01221001  RH  043%=      5-min Rain = 0
KHO1 191517Z 17005KT 12/M00 A3001 RMK A01 T01231001  RH  043%=      5-min Rain = 0
KHO1 191518Z 16005KT 12/M00 A3001 RMK A01 T01231002  RH  042%=      5-min Rain = 0
KHO1 191519Z 16005KT 12/00 A3001 RMK A01 T01240001  RH  043%=      5-min Rain = 0
KHO1 191520Z 16004KT 13/00 A3001 RMK A01 T01260000  RH  042%=      5-min Rain = 0
KHO1 191521Z 18004KT 13/M00 A3001 RMK A01 T01261002  RH  041%=      5-min Rain = 0
KHO1 191522Z 18005KT 13/M00 A3001 RMK A01 T01261003  RH  041%=      5-min Rain = 0
KHO1 191523Z 18005KT 13/M00 A3001 RMK A01 T01271001  RH  041%=      5-min Rain = 0
KHO1 191524Z 17006KT 13/M00 A3001 RMK A01 T01281002  RH  041%=      5-min Rain = 0
KHO1 191525Z 18005KT 13/M00 A3001 RMK A01 T01281002  RH  041%=      5-min Rain = 0
KHO1 191526Z 18005KT 13/M00 A3001 RMK A01 T01291003  RH  040%=      5-min Rain = 0
KHO1 191527Z 18004KT 13/M00 A3001 RMK A01 T01291002  RH  040%=      5-min Rain = 0
KHO1 191528Z 17005KT 13/M00 A3001 RMK A01 T01301002  RH  040%=      5-min Rain = 0
KHO1 191529Z 17005KT 13/00 A3001 RMK A01 T013200-0  RH  040%=      5-min Rain = 0
KHO1 191530Z 18005KT 13/00 A3001 RMK A01 T01330000  RH  040%=      5-min Rain = 0
KHO1 191531Z 18006KT 13/M01 A3001 RMK A01 T01331005  RH  039%=      5-min Rain = 0
KHO1 191532Z 19006KT 13/M01 A3001 RMK A01 T01321005  RH  039%=      5-min Rain = 0
KHO1 191533Z 18005KT 13/M00 A3001 RMK A01 T01331003  RH  039%=      5-min Rain = 0
KHO1 191534Z 18006KT 13/M01 A3001 RMK A01 T01331005  RH  039%=      5-min Rain = 0
KHO1 191535Z 18005KT 13/M00 A3001 RMK A01 T01331002  RH  039%=      5-min Rain = 0
KHO1 191536Z 18005KT 14/M00 A3001 RMK A01 T01351002  RH  039%=      5-min Rain = 0
KHO1 191537Z 18006KT 14/M00 A3001 RMK A01 T01361002  RH  039%=      5-min Rain = 0
KHO1 191538Z 19007KT 14/M01 A3001 RMK A01 T01361005  RH  038%=      5-min Rain = 0
KHO1 191539Z 19006KT 14/M00 A3001 RMK A01 T01371001  RH  039%=      5-min Rain = 0
KHO1 191540Z 18007KT 14/M00 A3001 RMK A01 T01391001  RH  038%=      5-min Rain = 0
KHO1 191541Z 19007KT 14/M01 A3001 RMK A01 T01391005  RH  037%=      5-min Rain = 0
KHO1 191542Z 19006KT 14/00 A3001 RMK A01 T01400000  RH  038%=      5-min Rain = 0
KHO1 191543Z 19008KT 14/M01 A3001 RMK A01 T01411005  RH  037%=      5-min Rain = 0
KHO1 191544Z 19009KT 14/M00 A3001 RMK A01 T01411004  RH  037%=      5-min Rain = 0
KHO1 191545Z 18008KT 14/M01 A3002 RMK A01 T01411006  RH  036%=      5-min Rain = 0
KHO1 191546Z 18007KT 14/M01 A3002 RMK A01 T01411005  RH  037%=      5-min Rain = 0
KHO1 191547Z 18008KT 14/M00 A3002 RMK A01 T01411003  RH  037%=      5-min Rain = 0
KHO1 191548Z 18007KT 14/M00 A3002 RMK A01 T01421001  RH  038%=      5-min Rain = 0
KHO1 191549Z 18006KT 14/00 A3002 RMK A01 T01430000  RH  038%=      5-min Rain = 0
KHO1 191550Z 18007KT 14/00 A3002 RMK A01 T01440001  RH  037%=      5-min Rain = 0
KHO1 191551Z 18008KT 15/M00 A3002 RMK A01 T01451001  RH  037%=      5-min Rain = 0
KHO1 191552Z 19007KT 15/00 A3002 RMK A01 T01460001  RH  037%=      5-min Rain = 0
KHO1 191553Z 18009KT 15/M00 A3002 RMK A01 T01481001  RH  036%=      5-min Rain = 0
KHO1 191554Z 18008KT 15/M00 A3002 RMK A01 T01471002  RH  036%=      5-min Rain = 0
KHO1 191555Z 18007KT 15/00 A3002 RMK A01 T01480001  RH  037%=      5-min Rain = 0
KHO1 191556Z 18008KT 15/00 A3002 RMK A01 T014900-0  RH  036%=      5-min Rain = 0
KHO1 191557Z 19008KT 15/M00 A3002 RMK A01 T01501001  RH  036%=      5-min Rain = 0
KHO1 191558Z 18007KT 15/00 A3002 RMK A01 T01510002  RH  036%=      5-min Rain = 0
KHO1 191559Z 18007KT 15/00 A3002 RMK A01 T01520000  RH  036%=      5-min Rain = 0
KHO1 191600Z 18008KT 15/M00 A3002 RMK A01 T01521001  RH  035%=      5-min Rain = 0
KHO1 191601Z 18008KT 15/M00 A3002 RMK A01 T01531001  RH  035%=      5-min Rain = 0
KHO1 191602Z 18008KT 15/M01 A3002 RMK A01 T01521005  RH  034%=      5-min Rain = 0
KHO1 191603Z 18007KT 15/M00 A3002 RMK A01 T01531003  RH  034%=      5-min Rain = 0
KHO1 191604Z 19008KT 15/M01 A3002 RMK A01 T01541006  RH  034%=      5-min Rain = 0
KHO1 191605Z 19008KT 15/M01 A3002 RMK A01 T01541005  RH  034%=      5-min Rain = 0
KHO1 191606Z 20009KT 15/M01 A3002 RMK A01 T01541006  RH  033%=      5-min Rain = 0
KHO1 191607Z 19008KT 16/M01 A3002 RMK A01 T01551005  RH  034%=      5-min Rain = 0
KHO1 191608Z 18009KT 16/M00 A3002 RMK A01 T01551004  RH  034%=      5-min Rain = 0
KHO1 191609Z 18007KT 16/M00 A3002 RMK A01 T01561002  RH  034%=      5-min Rain = 0
KHO1 191610Z 18006KT 16/00 A3002 RMK A01 T01580000  RH  034%=      5-min Rain = 0
KHO1 191611Z 18007KT 16/M00 A3002 RMK A01 T01601001  RH  033%=      5-min Rain = 0
KHO1 191612Z 18007KT 16/M00 A3002 RMK A01 T01601001  RH  033%=      5-min Rain = 0
KHO1 191613Z 18007KT 16/M00 A3002 RMK A01 T01601004  RH  033%=      5-min Rain = 0
KHO1 191614Z 17008KT 16/M00 A3002 RMK A01 T01601003  RH  033%=      5-min Rain = 0
KHO1 191615Z 18007KT 16/M00 A3002 RMK A01 T01601003  RH  033%=      5-min Rain = 0
KHO1 191616Z 18007KT 16/M00 A3002 RMK A01 T01621003  RH  033%=      5-min Rain = 0
KHO1 191617Z 18007KT 16/M00 A3002 RMK A01 T01631003  RH  032%=      5-min Rain = 0
KHO1 191618Z 18006KT 16/M00 A3002 RMK A01 T01641004  RH  032%=      5-min Rain = 0
KHO1 191619Z 18007KT 17/M00 A3002 RMK A01 T01651004  RH  032%=      5-min Rain = 0
KHO1 191620Z 18007KT 16/M01 A3002 RMK A01 T01641007  RH  031%=      5-min Rain = 0
KHO1 191621Z 18008KT 17/M01 A3002 RMK A01 T01661006  RH  031%=      5-min Rain = 0
KHO1 191622Z 17009KT 17/M01 A3002 RMK A01 T01671010  RH  030%=      5-min Rain = 0
KHO1 191623Z 18008KT 17/M01 A3002 RMK A01 T01671011  RH  030%=      5-min Rain = 0
KHO1 191624Z 18009KT 17/M01 A3002 RMK A01 T01681012  RH  029%=      5-min Rain = 0
KHO1 191625Z 18009KT 17/M01 A3002 RMK A01 T01681014  RH  029%=      5-min Rain = 0
KHO1 191626Z 18008KT 17/M01 A3002 RMK A01 T01671013  RH  029%=      5-min Rain = 0
KHO1 191627Z 19009KT 17/M01 A3002 RMK A01 T01681013  RH  029%=      5-min Rain = 0
KHO1 191628Z 19008KT 17/M01 A3002 RMK A01 T01691011  RH  029%=      5-min Rain = 0
KHO1 191629Z 19007KT 17/M01 A3002 RMK A01 T01701010  RH  029%=      5-min Rain = 0
KHO1 191630Z 18008KT 17/M01 A3002 RMK A01 T01721013  RH  028%=      5-min Rain = 0
KHO1 191631Z 19008KT 17/M01 A3002 RMK A01 T01721011  RH  029%=      5-min Rain = 0
KHO1 191632Z 19007KT 18/M01 A3002 RMK A01 T01751008  RH  029%=      5-min Rain = 0
KHO1 191633Z 20008KT 18/M01 A3002 RMK A01 T01751010  RH  028%=      5-min Rain = 0
KHO1 191634Z 20009KT 18/M01 A3002 RMK A01 T01751009  RH  029%=      5-min Rain = 0
KHO1 191635Z 19010KT 17/M01 A3002 RMK A01 T01731012  RH  028%=      5-min Rain = 0
KHO1 191636Z 19009KT 17/M01 A3002 RMK A01 T01731012  RH  028%=      5-min Rain = 0
KHO1 191637Z 20009KT 17/M02 A3002 RMK A01 T01721015  RH  028%=      5-min Rain = 0
KHO1 191638Z 19010KT 17/M02 A3002 RMK A01 T01701016  RH  028%=      5-min Rain = 0
KHO1 191639Z 20009KT 17/M01 A3002 RMK A01 T01701013  RH  029%=      5-min Rain = 0
KHO1 191640Z 20011KT 17/M02 A3002 RMK A01 T01711015  RH  028%=      5-min Rain = 0
KHO1 191641Z 20010KT 17/M01 A3002 RMK A01 T01711014  RH  028%=      5-min Rain = 0
KHO1 191642Z 20009KT 17/M01 A3002 RMK A01 T01711012  RH  029%=      5-min Rain = 0
KHO1 191643Z 19009KT 17/M01 A3002 RMK A01 T01711011  RH  029%=      5-min Rain = 0
KHO1 191644Z 19008KT 17/M01 A3001 RMK A01 T01721010  RH  029%=      5-min Rain = 0
KHO1 191645Z 20008KT 17/M01 A3002 RMK A01 T01741009  RH  029%=      5-min Rain = 0
KHO1 191646Z 21010KT 18/M01 A3002 RMK A01 T01761009  RH  029%=      5-min Rain = 0
KHO1 191647Z 20011KT 18/M01 A3002 RMK A01 T01761012  RH  028%=      5-min Rain = 0
KHO1 191648Z 20010KT 18/M01 A3002 RMK A01 T01751011  RH  028%=      5-min Rain = 0
KHO1 191649Z 20010KT 18/M01 A3002 RMK A01 T01761010  RH  028%=      5-min Rain = 0
KHO1 191650Z 19009KT 18/M01 A3002 RMK A01 T01761012  RH  028%=      5-min Rain = 0
KHO1 191651Z 20008KT 18/M01 A3001 RMK A01 T01771008  RH  028%=      5-min Rain = 0
KHO1 191652Z 20009KT 18/M01 A3001 RMK A01 T01781009  RH  028%=      5-min Rain = 0
KHO1 191653Z 19009KT 18/M01 A3001 RMK A01 T01781008  RH  028%=      5-min Rain = 0
KHO1 191654Z 19009KT 18/M01 A3001 RMK A01 T01781009  RH  028%=      5-min Rain = 0
KHO1 191655Z 19007KT 18/M01 A3001 RMK A01 T01781008  RH  028%=      5-min Rain = 0
KHO1 191656Z 21008KT 18/M01 A3001 RMK A01 T01801008  RH  028%=      5-min Rain = 0
KHO1 191657Z 21009KT 18/M01 A3001 RMK A01 T01801010  RH  028%=      5-min Rain = 0
KHO1 191658Z 21010KT 18/M01 A3001 RMK A01 T01801010  RH  028%=      5-min Rain = 0
KHO1 191659Z 20009KT 18/M01 A3001 RMK A01 T01791010  RH  028%=      5-min Rain = 0
KHO1 191700Z 20009KT 18/M01 A3001 RMK A01 T01791009  RH  028%=      5-min Rain = 0
KHO1 191701Z 21009KT 18/M01 A3001 RMK A01 T01791009  RH  028%=      5-min Rain = 0
KHO1 191702Z 21008KT 18/M01 A3001 RMK A01 T01791008  RH  028%=      5-min Rain = 0
KHO1 191703Z 20009KT 18/M01 A3001 RMK A01 T01811008  RH  028%=      5-min Rain = 0
KHO1 191704Z 21008KT 18/M01 A3001 RMK A01 T01831006  RH  028%=      5-min Rain = 0
KHO1 191705Z 21010KT 18/M01 A3001 RMK A01 T01841006  RH  028%=      5-min Rain = 0
KHO1 191706Z 20008KT 18/M01 A3001 RMK A01 T01841007  RH  028%=      5-min Rain = 0
KHO1 191707Z 21009KT 18/M01 A3001 RMK A01 T01841008  RH  027%=      5-min Rain = 0
KHO1 191708Z 20009KT 18/M01 A3001 RMK A01 T01831008  RH  027%=      5-min Rain = 0
KHO1 191709Z 19008KT 18/M01 A3001 RMK A01 T01821008  RH  028%=      5-min Rain = 0
KHO1 191710Z 20010KT 18/M01 A3001 RMK A01 T01831008  RH  027%=      5-min Rain = 0
KHO1 191711Z 19009KT 19/M01 A3001 RMK A01 T01851008  RH  027%=      5-min Rain = 0
KHO1 191712Z 20009KT 19/M01 A3001 RMK A01 T01861010  RH  027%=      5-min Rain = 0
KHO1 191713Z 19008KT 19/M01 A30 RMK A01 T01861009  RH  027%=      5-min Rain = 0
KHO1 191714Z 20008KT 19/M01 A30 RMK A01 T01861009  RH  027%=      5-min Rain = 0
KHO1 191715Z 19008KT 19/M01 A30 RMK A01 T01871009  RH  027%=      5-min Rain = 0
KHO1 191716Z 20008KT 19/M01 A30 RMK A01 T01891008  RH  026%=      5-min Rain = 0
KHO1 191717Z 20007KT 19/M01 A30 RMK A01 T01911008  RH  026%=      5-min Rain = 0
KHO1 191718Z 20008KT 19/M01 A30 RMK A01 T01931009  RH  026%=      5-min Rain = 0
KHO1 191719Z 19009KT 19/M01 A30 RMK A01 T01941010  RH  025%=      5-min Rain = 0
KHO1 191720Z 19008KT 19/M01 A30 RMK A01 T01941012  RH  025%=      5-min Rain = 0
KHO1 191721Z 19008KT 20/M01 A30 RMK A01 T01961009  RH  025%=      5-min Rain = 0
KHO1 191722Z 20008KT 20/M01 A30 RMK A01 T01971012  RH  024%=      5-min Rain = 0
KHO1 191723Z 19008KT 20/M01 A30 RMK A01 T01971014  RH  024%=      5-min Rain = 0
KHO1 191724Z 19007KT 20/M01 A30 RMK A01 T01971014  RH  024%=      5-min Rain = 0
KHO1 191725Z 20007KT 20/M02 A30 RMK A01 T02001016  RH  023%=      5-min Rain = 0
KHO1 191726Z 19007KT 20/M02 A30 RMK A01 T02021016  RH  023%=      5-min Rain = 0
KHO1 191727Z 19007KT 20/M02 A30 RMK A01 T02041018  RH  022%=      5-min Rain = 0
KHO1 191728Z 20007KT 20/M02 A30 RMK A01 T02041021  RH  022%=      5-min Rain = 0
KHO1 191729Z 19009KT 20/M02 A30 RMK A01 T02041024  RH  021%=      5-min Rain = 0
KHO1 191730Z 19008KT 20/M02 A30 RMK A01 T02041024  RH  021%=      5-min Rain = 0
KHO1 191731Z 20009KT 20/M03 A30 RMK A01 T02021031  RH  021%=      5-min Rain = 0
KHO1 191732Z 21008KT 20/M03 A30 RMK A01 T02041026  RH  021%=      5-min Rain = 0
KHO1 191733Z 21008KT 20/M03 A30 RMK A01 T02041026  RH  021%=      5-min Rain = 0
KHO1 191734Z 20006KT 21/M02 A2999 RMK A01 T02051022  RH  022%=      5-min Rain = 0
KHO1 191735Z 20009KT 21/M02 A2999 RMK A01 T02071024  RH  021%=      5-min Rain = 0
KHO1 191736Z 20010KT 21/M03 A2999 RMK A01 T02061028  RH  020%=      5-min Rain = 0
KHO1 191737Z 20009KT 20/M03 A2999 RMK A01 T02041029  RH  021%=      5-min Rain = 0
KHO1 191738Z 20010KT 20/M03 A2999 RMK A01 T02021030  RH  021%=      5-min Rain = 0
KHO1 191739Z 21007KT 20/M03 A2999 RMK A01 T02031030  RH  021%=      5-min Rain = 0
KHO1 191740Z 20009KT 21/M03 A2999 RMK A01 T02051028  RH  021%=      5-min Rain = 0
KHO1 191741Z 19009KT 21/M03 A2999 RMK A01 T02061027  RH  021%=      5-min Rain = 0
KHO1 191742Z 19011KT 21/M03 A2999 RMK A01 T02071028  RH  020%=      5-min Rain = 0
KHO1 191743Z 19009KT 21/M03 A2999 RMK A01 T02071028  RH  020%=      5-min Rain = 0
KHO1 191744Z 20008KT 21/M03 A2999 RMK A01 T02061032  RH  020%=      5-min Rain = 0
KHO1 191745Z 20008KT 21/M03 A2999 RMK A01 T02071030  RH  020%=      5-min Rain = 0
KHO1 191746Z 20009KT 21/M03 A2999 RMK A01 T02061029  RH  020%=      5-min Rain = 0
KHO1 191747Z 20009KT 21/M03 A2999 RMK A01 T02091027  RH  020%=      5-min Rain = 0
KHO1 191748Z 20008KT 21/M03 A2999 RMK A01 T02111028  RH  020%=      5-min Rain = 0
KHO1 191749Z 20007KT 21/M03 A2999 RMK A01 T02111026  RH  020%=      5-min Rain = 0
KHO1 191750Z 20007KT 21/M03 A2999 RMK A01 T02121031  RH  019%=      5-min Rain = 0
KHO1 191751Z 20008KT 21/M03 A2999 RMK A01 T02121028  RH  020%=      5-min Rain = 0
KHO1 191752Z 20010KT 21/M03 A2999 RMK A01 T02121031  RH  019%=      5-min Rain = 0
KHO1 191753Z 19009KT 21/M03 A2999 RMK A01 T02101032  RH  019%=      5-min Rain = 0
KHO1 191754Z 19008KT 21/M03 A2999 RMK A01 T02101031  RH  020%=      5-min Rain = 0
KHO1 191755Z 20009KT 21/M03 A2999 RMK A01 T02121030  RH  020%=      5-min Rain = 0
KHO1 191756Z 21008KT 21/M03 A2999 RMK A01 T02141032  RH  019%=      5-min Rain = 0
KHO1 191757Z 20008KT 21/M03 A2998 RMK A01 T02141031  RH  019%=      5-min Rain = 0
KHO1 191758Z 19008KT 21/M03 A2998 RMK A01 T02141034  RH  019%=      5-min Rain = 0
KHO1 191759Z 20007KT 21/M03 A2998 RMK A01 T02131031  RH  019%=      5-min Rain = 0
KHO1 191800Z 20007KT 22/M03 A2998 RMK A01 T02151031  RH  019%=      5-min Rain = 0
KHO1 191801Z 20008KT 22/M03 A2998 RMK A01 T02161030  RH  019%=      5-min Rain = 0
KHO1 191802Z 20009KT 22/M03 A2998 RMK A01 T02161034  RH  019%=      5-min Rain = 0
KHO1 191803Z 20008KT 21/M04 A2998 RMK A01 T02141035  RH  019%=      5-min Rain = 0
KHO1 191804Z 20008KT 21/M03 A2998 RMK A01 T02141033  RH  019%=      5-min Rain = 0
KHO1 191805Z 20011KT 22/M03 A2998 RMK A01 T02161033  RH  019%=      5-min Rain = 0
KHO1 191806Z 21008KT 22/M03 A2998 RMK A01 T02181033  RH  018%=      5-min Rain = 0
KHO1 191807Z 22007KT 22/M03 A2998 RMK A01 T02191033  RH  018%=      5-min Rain = 0
KHO1 191808Z 21010KT 22/M04 A2998 RMK A01 T02201035  RH  018%=      5-min Rain = 0
KHO1 191809Z 20010KT 22/M04 A2998 RMK A01 T02191036  RH  018%=      5-min Rain = 0
KHO1 191810Z 21010KT 22/M04 A2998 RMK A01 T02181036  RH  018%=      5-min Rain = 0
KHO1 191811Z 21009KT 22/M04 A2998 RMK A01 T02181039  RH  018%=      5-min Rain = 0
KHO1 191812Z 22010KT 22/M04 A2997 RMK A01 T02191036  RH  018%=      5-min Rain = 0
KHO1 191813Z 21009KT 22/M04 A2997 RMK A01 T02201037  RH  018%=      5-min Rain = 0
KHO1 191814Z 21009KT 22/M04 A2997 RMK A01 T02191038  RH  017%=      5-min Rain = 0
KHO1 191815Z 21009KT 22/M04 A2997 RMK A01 T02191038  RH  018%=      5-min Rain = 0
KHO1 191816Z 20010KT 22/M04 A2997 RMK A01 T02201038  RH  018%=      5-min Rain = 0
KHO1 191817Z 21009KT 22/M04 A2997 RMK A01 T02191040  RH  017%=      5-min Rain = 0
KHO1 191818Z 21008KT 22/M04 A2997 RMK A01 T02201037  RH  018%=      5-min Rain = 0
KHO1 191819Z 19008KT 22/M04 A2997 RMK A01 T02221036  RH  018%=      5-min Rain = 0
KHO1 191820Z 20008KT 22/M04 A2997 RMK A01 T02231035  RH  018%=      5-min Rain = 0
KHO1 191821Z 20009KT 22/M04 A2997 RMK A01 T02241035  RH  017%=      5-min Rain = 0
KHO1 191822Z 19009KT 22/M04 A2997 RMK A01 T02241038  RH  017%=      5-min Rain = 0
KHO1 191823Z 20008KT 22/M04 A2997 RMK A01 T02231036  RH  017%=      5-min Rain = 0
KHO1 191824Z 21006KT 22/M03 A2997 RMK A01 T02241034  RH  018%=      5-min Rain = 0
KHO1 191825Z 21008KT 23/M04 A2997 RMK A01 T02251036  RH  017%=      5-min Rain = 0
KHO1 191826Z 20007KT 22/M04 A2996 RMK A01 T02241037  RH  017%=      5-min Rain = 0
KHO1 191827Z 22010KT 22/M04 A2996 RMK A01 T02221043  RH  017%=      5-min Rain = 0
KHO1 191828Z 20010KT 22/M04 A2996 RMK A01 T02211042  RH  017%=      5-min Rain = 0
KHO1 191829Z 20011KT 22/M04 A2996 RMK A01 T02221038  RH  017%=      5-min Rain = 0
KHO1 191830Z 20009KT 23/M03 A2996 RMK A01 T02251034  RH  017%=      5-min Rain = 0
KHO1 191831Z 21010KT 23/M04 A2996 RMK A01 T02291036  RH  017%=      5-min Rain = 0
KHO1 191832Z 21010KT 23/M04 A2996 RMK A01 T02311037  RH  017%=      5-min Rain = 0
KHO1 191833Z 20010KT 23/M04 A2996 RMK A01 T02301040  RH  016%=      5-min Rain = 0
KHO1 191834Z 20010KT 23/M04 A2996 RMK A01 T02311038  RH  016%=      5-min Rain = 0
KHO1 191835Z 21008KT 23/M04 A2996 RMK A01 T02331036  RH  016%=      5-min Rain = 0
KHO1 191836Z 21011KT 23/M04 A2996 RMK A01 T02341042  RH  016%=      5-min Rain = 0
KHO1 191837Z 21011KT 23/M05 A2995 RMK A01 T02321045  RH  015%=      5-min Rain = 0
KHO1 191838Z 20010KT 23/M04 A2995 RMK A01 T02321041  RH  016%=      5-min Rain = 0
KHO1 191839Z 21009KT 23/M04 A2995 RMK A01 T02321044  RH  016%=      5-min Rain = 0
KHO1 191840Z 22008KT 23/M04 A2995 RMK A01 T02321042  RH  016%=      5-min Rain = 0
KHO1 191841Z 20008KT 23/M04 A2995 RMK A01 T02331039  RH  016%=      5-min Rain = 0
KHO1 191842Z 18011KT 23/M04 A2995 RMK A01 T02321042  RH  016%=      5-min Rain = 0
KHO1 191843Z 18011KT 23/M04 A2995 RMK A01 T02301041  RH  016%=      5-min Rain = 0
KHO1 191844Z 18010KT 23/M04 A2995 RMK A01 T02301038  RH  016%=      5-min Rain = 0
KHO1 191845Z 20009KT 23/M04 A2995 RMK A01 T02311037  RH  016%=      5-min Rain = 0
KHO1 191846Z 20009KT 23/M04 A2995 RMK A01 T02331038  RH  016%=      5-min Rain = 0
KHO1 191847Z 21009KT 23/M04 A2995 RMK A01 T02331042  RH  016%=      5-min Rain = 0
KHO1 191848Z 20009KT 23/M04 A2995 RMK A01 T02321042  RH  016%=      5-min Rain = 0
KHO1 191849Z 18012KT 23/M04 A2995 RMK A01 T02321040  RH  016%=      5-min Rain = 0
KHO1 191850Z 19011KT 23/M04 A2994 RMK A01 T02321039  RH  016%=      5-min Rain = 0
KHO1 191851Z 18010KT 23/M04 A2994 RMK A01 T02331038  RH  016%=      5-min Rain = 0
KHO1 191852Z 17011KT 23/M04 A2994 RMK A01 T02321042  RH  016%=      5-min Rain = 0
KHO1 191853Z 17011KT 23/M04 A2994 RMK A01 T02311040  RH  016%=      5-min Rain = 0
KHO1 191854Z 17010KT 23/M03 A2994 RMK A01 T02331034  RH  017%=      5-min Rain = 0
KHO1 191855Z 18010KT 23/M04 A2994 RMK A01 T02341041  RH  016%=      5-min Rain = 0
KHO1 191856Z 20014KT 24/M04 A2994 RMK A01 T02351040  RH  016%=      5-min Rain = 0
KHO1 191857Z 20011KT 24/M04 A2994 RMK A01 T02371043  RH  015%=      5-min Rain = 0
KHO1 191858Z 20011KT 24/M05 A2994 RMK A01 T02351048  RH  015%=      5-min Rain = 0
KHO1 191859Z 21009KT 24/M04 A2994 RMK A01 T02351044  RH  015%=      5-min Rain = 0
KHO1 191900Z 19011KT 24/M04 A2994 RMK A01 T02361044  RH  015%=      5-min Rain = 0
KHO1 191901Z 19011KT 24/M04 A2994 RMK A01 T02381041  RH  015%=      5-min Rain = 0
KHO1 191902Z 20010KT 24/M05 A2993 RMK A01 T02371045  RH  015%=      5-min Rain = 0
KHO1 191903Z 18012KT 24/M04 A2993 RMK A01 T02351044  RH  015%=      5-min Rain = 0
KHO1 191904Z 18011KT 23/M04 A2993 RMK A01 T02341043  RH  016%=      5-min Rain = 0
KHO1 191905Z 18010KT 23/M04 A2993 RMK A01 T02331040  RH  016%=      5-min Rain = 0
KHO1 191906Z 18011KT 24/M04 A2993 RMK A01 T02351035  RH  016%=      5-min Rain = 0
KHO1 191907Z 18012KT 24/M04 A2993 RMK A01 T02361038  RH  016%=      5-min Rain = 0
KHO1 191908Z 17013KT 24/M04 A2993 RMK A01 T02351040  RH  016%=      5-min Rain = 0
KHO1 191909Z 18011KT 24/M04 A2993 RMK A01 T02361041  RH  016%=      5-min Rain = 0
KHO1 191910Z 20010KT 24/M04 A2993 RMK A01 T02371039  RH  016%=      5-min Rain = 0
KHO1 191911Z 18010KT 24/M04 A2993 RMK A01 T02401038  RH  016%=      5-min Rain = 0
KHO1 191912Z 18010KT 24/M04 A2993 RMK A01 T02391043  RH  015%=      5-min Rain = 0
KHO1 191913Z 19011KT 24/M04 A2993 RMK A01 T02381042  RH  015%=      5-min Rain = 0
KHO1 191914Z 18011KT 24/M04 A2993 RMK A01 T02381044  RH  015%=      5-min Rain = 0
KHO1 191915Z 18012KT 24/M04 A2993 RMK A01 T02381043  RH  015%=      5-min Rain = 0
KHO1 191916Z 18013KT 24/M04 A2992 RMK A01 T02391043  RH  015%=      5-min Rain = 0
KHO1 191917Z 19012KT 24/M04 A2992 RMK A01 T02381044  RH  015%=      5-min Rain = 0
KHO1 191918Z 18010KT 24/M04 A2993 RMK A01 T02381042  RH  015%=      5-min Rain = 0
KHO1 191919Z 19010KT 24/M04 A2992 RMK A01 T02391039  RH  015%=      5-min Rain = 0
KHO1 191920Z 19011KT 24/M04 A2992 RMK A01 T02391042  RH  015%=      5-min Rain = 0
KHO1 191921Z 18010KT 24/M04 A2992 RMK A01 T02381043  RH  015%=      5-min Rain = 0
KHO1 191922Z 18010KT 24/M04 A2992 RMK A01 T02381042  RH  015%=      5-min Rain = 0
KHO1 191923Z 19013KT 24/M04 A2992 RMK A01 T02401040  RH  015%=      5-min Rain = 0
KHO1 191924Z 20013KT 24/M04 A2992 RMK A01 T02401043  RH  015%=      5-min Rain = 0
KHO1 191925Z 19011KT 24/M04 A2992 RMK A01 T02391044  RH  015%=      5-min Rain = 0
KHO1 191926Z 21009KT 24/M04 A2992 RMK A01 T02391041  RH  015%=      5-min Rain = 0
KHO1 191927Z 18010KT 24/M04 A2992 RMK A01 T02431035  RH  016%=      5-min Rain = 0
KHO1 191928Z 19011KT 24/M04 A2992 RMK A01 T02421040  RH  015%=      5-min Rain = 0
KHO1 191929Z 18012KT 24/M04 A2992 RMK A01 T02411041  RH  015%=      5-min Rain = 0
KHO1 191930Z 18010KT 24/M04 A2992 RMK A01 T02371042  RH  015%=      5-min Rain = 0
KHO1 191931Z 18010G15KT 24/M04 A2992 RMK A01 T02381036  RH  016%=      5-min Rain = 0
KHO1 191932Z 18011KT 24/M04 A2991 RMK A01 T02381039  RH  015%=      5-min Rain = 0
KHO1 191933Z 18010KT 24/M04 A2991 RMK A01 T02381037  RH  016%=      5-min Rain = 0
KHO1 191934Z 18010KT 24/M04 A2991 RMK A01 T02391037  RH  016%=      5-min Rain = 0
KHO1 191935Z 18009KT 24/M04 A2991 RMK A01 T02411037  RH  016%=      5-min Rain = 0
KHO1 191936Z 18011KT 24/M04 A2991 RMK A01 T02401039  RH  015%=      5-min Rain = 0
KHO1 191937Z 19011KT 24/M04 A2991 RMK A01 T02391036  RH  016%=      5-min Rain = 0
KHO1 191938Z 19010KT 24/M04 A2991 RMK A01 T02401037  RH  016%=      5-min Rain = 0
KHO1 191939Z 20010G15KT 24/M03 A2991 RMK A01 T02431033  RH  016%=      5-min Rain = 0
KHO1 191940Z 20012KT 24/M04 A2991 RMK A01 T02431038  RH  015%=      5-min Rain = 0
KHO1 191941Z 18012KT 24/M03 A2991 RMK A01 T02431034  RH  016%=      5-min Rain = 0
KHO1 191942Z 18012KT 24/M04 A2991 RMK A01 T02401038  RH  016%=      5-min Rain = 0
KHO1 191943Z 19012KT 24/M04 A2991 RMK A01 T02381036  RH  016%=      5-min Rain = 0
KHO1 191944Z 19013KT 24/M04 A2991 RMK A01 T02381037  RH  016%=      5-min Rain = 0
KHO1 191945Z 19013KT 24/M04 A2991 RMK A01 T02371040  RH  016%=      5-min Rain = 0
KHO1 191946Z 19013KT 24/M04 A2991 RMK A01 T02361039  RH  016%=      5-min Rain = 0
KHO1 191947Z 18012KT 24/M04 A2991 RMK A01 T02361036  RH  016%=      5-min Rain = 0
KHO1 191948Z 19012KT 24/M04 A2991 RMK A01 T02361038  RH  016%=      5-min Rain = 0
KHO1 191949Z 20013KT 24/M04 A2991 RMK A01 T02371040  RH  016%=      5-min Rain = 0
KHO1 191950Z 20011KT 24/M04 A2991 RMK A01 T02361041  RH  016%=      5-min Rain = 0
KHO1 191951Z 18009KT 24/M04 A2991 RMK A01 T02371035  RH  016%=      5-min Rain = 0
KHO1 191952Z 18013KT 24/M04 A2991 RMK A01 T02401038  RH  016%=      5-min Rain = 0
KHO1 191953Z 19014KT 24/M04 A2991 RMK A01 T02381042  RH  015%=      5-min Rain = 0
KHO1 191954Z 20012KT 24/M04 A2991 RMK A01 T02371040  RH  016%=      5-min Rain = 0
KHO1 191955Z 19010KT 24/M04 A2991 RMK A01 T02371040  RH  016%=      5-min Rain = 0
KHO1 191956Z 18009KT 24/M04 A2991 RMK A01 T02371036  RH  016%=      5-min Rain = 0
KHO1 191957Z 18012KT 24/M04 A299 RMK A01 T02381037  RH  016%=      5-min Rain = 0
KHO1 191958Z 18011KT 24/M04 A299 RMK A01 T02371043  RH  015%=      5-min Rain = 0
KHO1 191959Z 20014KT 24/M04 A299 RMK A01 T02371042  RH  015%=      5-min Rain = 0
KHO1 192000Z 20012KT 24/M04 A299 RMK A01 T02381044  RH  015%=      5-min Rain = 0
KHO1 192001Z 19012KT 24/M05 A299 RMK A01 T02371045  RH  015%=      5-min Rain = 0
KHO1 192002Z 18011KT 24/M04 A299 RMK A01 T02381042  RH  015%=      5-min Rain = 0
KHO1 192003Z 18011KT 24/M04 A299 RMK A01 T02391042  RH  015%=      5-min Rain = 0
KHO1 192004Z 19012KT 24/M04 A299 RMK A01 T02401044  RH  015%=      5-min Rain = 0
KHO1 192005Z 19012KT 24/M04 A299 RMK A01 T02391044  RH  015%=      5-min Rain = 0
KHO1 192006Z 20013KT 24/M05 A299 RMK A01 T02371046  RH  015%=      5-min Rain = 0
KHO1 192007Z 21011KT 24/M05 A299 RMK A01 T02371045  RH  015%=      5-min Rain = 0
KHO1 192008Z 20012KT 24/M05 A299 RMK A01 T02371045  RH  015%=      5-min Rain = 0
KHO1 192009Z 21014KT 24/M05 A299 RMK A01 T02361046  RH  015%=      5-min Rain = 0
KHO1 192010Z 20012KT 23/M05 A299 RMK A01 T02341047  RH  015%=      5-min Rain = 0
KHO1 192011Z 19013KT 23/M05 A299 RMK A01 T02341046  RH  015%=      5-min Rain = 0
KHO1 192012Z 19013KT 24/M04 A299 RMK A01 T02351044  RH  015%=      5-min Rain = 0
KHO1 192013Z 19013KT 24/M05 A299 RMK A01 T02361046  RH  015%=      5-min Rain = 0
KHO1 192014Z 19013KT 24/M05 A299 RMK A01 T02351046  RH  015%=      5-min Rain = 0
KHO1 192015Z 18013KT 24/M05 A299 RMK A01 T02351046  RH  015%=      5-min Rain = 0
KHO1 192016Z 19011KT 24/M04 A299 RMK A01 T02361040  RH  016%=      5-min Rain = 0
KHO1 192017Z 19012G17KT 24/M04 A299 RMK A01 T02381043  RH  015%=      5-min Rain = 0
KHO1 192018Z 18013KT 24/M05 A299 RMK A01 T02371046  RH  015%=      5-min Rain = 0
KHO1 192019Z 19011KT 24/M05 A299 RMK A01 T02361046  RH  015%=      5-min Rain = 0
KHO1 192020Z 20011KT 24/M05 A299 RMK A01 T02371045  RH  015%=      5-min Rain = 0
KHO1 192021Z 21012KT 24/M05 A299 RMK A01 T02381047  RH  015%=      5-min Rain = 0
KHO1 192022Z 19013KT 24/M05 A2989 RMK A01 T02381048  RH  015%=      5-min Rain = 0
KHO1 192023Z 20012KT 24/M05 A2989 RMK A01 T02381048  RH  015%=      5-min Rain = 0
KHO1 192024Z 20012KT 24/M05 A2989 RMK A01 T02381048  RH  015%=      5-min Rain = 0
KHO1 192025Z 21013KT 24/M05 A2989 RMK A01 T02391049  RH  014%=      5-min Rain = 0
KHO1 192026Z 20010KT 24/M05 A2989 RMK A01 T02371048  RH  015%=      5-min Rain = 0
KHO1 192027Z 18011KT 24/M05 A2989 RMK A01 T02381046  RH  015%=      5-min Rain = 0
KHO1 192028Z 19012KT 24/M05 A2989 RMK A01 T02381047  RH  015%=      5-min Rain = 0
KHO1 192029Z 20011KT 24/M05 A2989 RMK A01 T02381047  RH  015%=      5-min Rain = 0
KHO1 192030Z 19011KT 24/M05 A2989 RMK A01 T02381046  RH  015%=      5-min Rain = 0
KHO1 192031Z 20013KT 24/M05 A2989 RMK A01 T02391048  RH  015%=      5-min Rain = 0
KHO1 192032Z 19011KT 24/M05 A2989 RMK A01 T02381050  RH  014%=      5-min Rain = 0
KHO1 192033Z 20009KT 24/M05 A2989 RMK A01 T02361051  RH  014%=      5-min Rain = 0
KHO1 192034Z 20012KT 24/M05 A2989 RMK A01 T02371049  RH  015%=      5-min Rain = 0
KHO1 192035Z 20012KT 24/M05 A2989 RMK A01 T02381049  RH  014%=      5-min Rain = 0
KHO1 192036Z 20009KT 24/M05 A2989 RMK A01 T02391047  RH  015%=      5-min Rain = 0
KHO1 192037Z 20012KT 24/M05 A2989 RMK A01 T02401048  RH  014%=      5-min Rain = 0
KHO1 192038Z 19011KT 24/M05 A2989 RMK A01 T02401048  RH  014%=      5-min Rain = 0
KHO1 192039Z 19012KT 24/M05 A2989 RMK A01 T02401049  RH  014%=      5-min Rain = 0
KHO1 192040Z 19013KT 24/M05 A2989 RMK A01 T02401050  RH  014%=      5-min Rain = 0
KHO1 192041Z 19013KT 24/M05 A2989 RMK A01 T02401049  RH  014%=      5-min Rain = 0
KHO1 192042Z 19013KT 24/M05 A2989 RMK A01 T02401051  RH  014%=      5-min Rain = 0
KHO1 192043Z 19013KT 24/M05 A2989 RMK A01 T02381052  RH  014%=      5-min Rain = 0
KHO1 192044Z 18013KT 24/M05 A2989 RMK A01 T02371051  RH  014%=      5-min Rain = 0
KHO1 192045Z 18011KT 24/M05 A2988 RMK A01 T02361051  RH  014%=      5-min Rain = 0
KHO1 192046Z 18011KT 24/M05 A2988 RMK A01 T02381049  RH  014%=      5-min Rain = 0
KHO1 192047Z 19013KT 24/M05 A2988 RMK A01 T02381051  RH  014%=      5-min Rain = 0
KHO1 192048Z 19012KT 24/M05 A2988 RMK A01 T02381050  RH  014%=      5-min Rain = 0
KHO1 192049Z 18010KT 24/M05 A2988 RMK A01 T02401046  RH  015%=      5-min Rain = 0
KHO1 192050Z 19012KT 24/M05 A2988 RMK A01 T02411047  RH  014%=      5-min Rain = 0
KHO1 192051Z 19012KT 24/M05 A2988 RMK A01 T02421047  RH  014%=      5-min Rain = 0
KHO1 192052Z 19011KT 24/M05 A2988 RMK A01 T02391052  RH  014%=      5-min Rain = 0
KHO1 192053Z 19011KT 24/M05 A2988 RMK A01 T02361052  RH  014%=      5-min Rain = 0
KHO1 192054Z 19012KT 24/M05 A2988 RMK A01 T02361050  RH  015%=      5-min Rain = 0
KHO1 192055Z 19013KT 24/M05 A2988 RMK A01 T02351051  RH  014%=      5-min Rain = 0
KHO1 192056Z 19014KT 24/M05 A2988 RMK A01 T02351053  RH  014%=      5-min Rain = 0
KHO1 192057Z 18011KT 23/M05 A2988 RMK A01 T02341051  RH  015%=      5-min Rain = 0
KHO1 192058Z 19009KT 23/M05 A2988 RMK A01 T02331050  RH  015%=      5-min Rain = 0
KHO1 192059Z 20013KT 23/M05 A2988 RMK A01 T02331052  RH  015%=      5-min Rain = 0
KHO1 192100Z 20012KT 23/M05 A2988 RMK A01 T02331051  RH  015%=      5-min Rain = 0
KHO1 192101Z 20012KT 24/M05 A2988 RMK A01 T02351050  RH  015%=      5-min Rain = 0
KHO1 192102Z 19011KT 24/M05 A2988 RMK A01 T02351050  RH  015%=      5-min Rain = 0
KHO1 192103Z 19011KT 23/M05 A2988 RMK A01 T02331051  RH  015%=      5-min Rain = 0
KHO1 192104Z 19010KT 23/M05 A2988 RMK A01 T02321052  RH  015%=      5-min Rain = 0
KHO1 192105Z 20010KT 23/M05 A2988 RMK A01 T02321051  RH  015%=      5-min Rain = 0
KHO1 192106Z 20011KT 23/M05 A2988 RMK A01 T02311053  RH  015%=      5-min Rain = 0
KHO1 192107Z 19010KT 23/M05 A2988 RMK A01 T02301053  RH  015%=      5-min Rain = 0
KHO1 192108Z 20010KT 23/M05 A2988 RMK A01 T02301052  RH  015%=      5-min Rain = 0
KHO1 192109Z 21009KT 23/M05 A2988 RMK A01 T02301052  RH  015%=      5-min Rain = 0
KHO1 192110Z 20011KT 23/M05 A2988 RMK A01 T02301053  RH  015%=      5-min Rain = 0
KHO1 192111Z 20010KT 23/M05 A2988 RMK A01 T02301052  RH  015%=      5-min Rain = 0
KHO1 192112Z 20011KT 23/M05 A2988 RMK A01 T02301051  RH  015%=      5-min Rain = 0
KHO1 192113Z 20010KT 23/M05 A2988 RMK A01 T02311051  RH  015%=      5-min Rain = 0
KHO1 192114Z 20010KT 23/M05 A2988 RMK A01 T02331050  RH  015%=      5-min Rain = 0
KHO1 192115Z 20010KT 23/M05 A2988 RMK A01 T02331051  RH  015%=      5-min Rain = 0
KHO1 192116Z 20009KT 23/M05 A2988 RMK A01 T02331049  RH  015%=      5-min Rain = 0
KHO1 192117Z 20008KT 24/M05 A2988 RMK A01 T02351048  RH  015%=      5-min Rain = 0
KHO1 192118Z 20009KT 24/M05 A2988 RMK A01 T02361048  RH  015%=      5-min Rain = 0
KHO1 192119Z 20010KT 24/M05 A2988 RMK A01 T02381048  RH  015%=      5-min Rain = 0
KHO1 192120Z 19012KT 24/M05 A2988 RMK A01 T02381050  RH  014%=      5-min Rain = 0
KHO1 192121Z 19012KT 24/M05 A2988 RMK A01 T02371050  RH  014%=      5-min Rain = 0
KHO1 192122Z 19012KT 24/M05 A2988 RMK A01 T02371051  RH  014%=      5-min Rain = 0
KHO1 192123Z 19010KT 24/M05 A2988 RMK A01 T02371049  RH  014%=      5-min Rain = 0
KHO1 192124Z 19011KT 24/M05 A2988 RMK A01 T02371051  RH  014%=      5-min Rain = 0
KHO1 192125Z 19009KT 24/M05 A2988 RMK A01 T02371049  RH  014%=      5-min Rain = 0
KHO1 192126Z 18010KT 24/M05 A2988 RMK A01 T02391048  RH  014%=      5-min Rain = 0
KHO1 192127Z 19011KT 24/M05 A2988 RMK A01 T02401049  RH  014%=      5-min Rain = 0
KHO1 192128Z 19012KT 24/M05 A2988 RMK A01 T02411050  RH  014%=      5-min Rain = 0
KHO1 192129Z 18011KT 24/M05 A2988 RMK A01 T02411049  RH  014%=      5-min Rain = 0
KHO1 192130Z 18013KT 24/M05 A2988 RMK A01 T02411050  RH  014%=      5-min Rain = 0
KHO1 192131Z 18011KT 24/M05 A2988 RMK A01 T02411050  RH  014%=      5-min Rain = 0
KHO1 192132Z 19011KT 24/M05 A2988 RMK A01 T02421048  RH  014%=      5-min Rain = 0
KHO1 192133Z 20011KT 24/M05 A2988 RMK A01 T02431047  RH  014%=      5-min Rain = 0
KHO1 192134Z 20012KT 24/M05 A2988 RMK A01 T02441048  RH  014%=      5-min Rain = 0
KHO1 192135Z 21012KT 24/M05 A2988 RMK A01 T02431049  RH  014%=      5-min Rain = 0
KHO1 192136Z 19012KT 24/M05 A2988 RMK A01 T02431048  RH  014%=      5-min Rain = 0
KHO1 192137Z 19012KT 24/M05 A2987 RMK A01 T02421050  RH  014%=      5-min Rain = 0
KHO1 192138Z 19012KT 24/M05 A2987 RMK A01 T02421049  RH  014%=      5-min Rain = 0
KHO1 192139Z 20014KT 24/M05 A2987 RMK A01 T02421052  RH  014%=      5-min Rain = 0
KHO1 192140Z 20012KT 24/M05 A2987 RMK A01 T02391052  RH  014%=      5-min Rain = 0
KHO1 192141Z 19012KT 24/M05 A2987 RMK A01 T02391051  RH  014%=      5-min Rain = 0
KHO1 192142Z 18012KT 24/M05 A2987 RMK A01 T02401050  RH  014%=      5-min Rain = 0
KHO1 192143Z 19013KT 24/M05 A2987 RMK A01 T02391051  RH  014%=      5-min Rain = 0
KHO1 192144Z 19014KT 24/M05 A2987 RMK A01 T02391051  RH  014%=      5-min Rain = 0
KHO1 192145Z 19012KT 24/M05 A2987 RMK A01 T02381051  RH  014%=      5-min Rain = 0
KHO1 192146Z 20009KT 24/M05 A2987 RMK A01 T02401048  RH  014%=      5-min Rain = 0
KHO1 192147Z 21012KT 24/M05 A2987 RMK A01 T02401052  RH  014%=      5-min Rain = 0
KHO1 192148Z 20011KT 24/M05 A2987 RMK A01 T02401050  RH  014%=      5-min Rain = 0
KHO1 192149Z 20012KT 24/M05 A2987 RMK A01 T02401050  RH  014%=      5-min Rain = 0
KHO1 192150Z 20013KT 24/M05 A2987 RMK A01 T02381053  RH  014%=      5-min Rain = 0
KHO1 192151Z 20013KT 24/M05 A2987 RMK A01 T02371053  RH  014%=      5-min Rain = 0
KHO1 192152Z 19012KT 24/M05 A2987 RMK A01 T02371053  RH  014%=      5-min Rain = 0
KHO1 192153Z 20010KT 24/M05 A2987 RMK A01 T02381052  RH  014%=      5-min Rain = 0
KHO1 192154Z 20009KT 24/M05 A2987 RMK A01 T02391050  RH  014%=      5-min Rain = 0
KHO1 192155Z 18010KT 24/M05 A2986 RMK A01 T02401050  RH  014%=      5-min Rain = 0
KHO1 192156Z 18010KT 24/M05 A2986 RMK A01 T02391052  RH  014%=      5-min Rain = 0
KHO1 192157Z 19011KT 24/M05 A2986 RMK A01 T02401051  RH  014%=      5-min Rain = 0
KHO1 192158Z 19011KT 24/M05 A2986 RMK A01 T02391053  RH  014%=      5-min Rain = 0
KHO1 192159Z 20010KT 24/M05 A2986 RMK A01 T02381051  RH  014%=      5-min Rain = 0
KHO1 192200Z 20009KT 24/M05 A2987 RMK A01 T02391048  RH  014%=      5-min Rain = 0
KHO1 192201Z 19011KT 24/M05 A2987 RMK A01 T02401050  RH  014%=      5-min Rain = 0
KHO1 192202Z 20010KT 24/M05 A2987 RMK A01 T02411050  RH  014%=      5-min Rain = 0
KHO1 192203Z 20012KT 24/M05 A2987 RMK A01 T02411051  RH  014%=      5-min Rain = 0
KHO1 192204Z 20010KT 24/M05 A2987 RMK A01 T02401051  RH  014%=      5-min Rain = 0
KHO1 192205Z 20011KT 24/M05 A2987 RMK A01 T02411050  RH  014%=      5-min Rain = 0
KHO1 192206Z 21011KT 24/M05 A2987 RMK A01 T02411050  RH  014%=      5-min Rain = 0
KHO1 192207Z 21011KT 24/M05 A2987 RMK A01 T02411053  RH  014%=      5-min Rain = 0
KHO1 192208Z 20009KT 24/M05 A2987 RMK A01 T02411051  RH  014%=      5-min Rain = 0
KHO1 192209Z 20010KT 24/M05 A2987 RMK A01 T02411050  RH  014%=      5-min Rain = 0
KHO1 192210Z 21012KT 24/M05 A2987 RMK A01 T02411052  RH  014%=      5-min Rain = 0
KHO1 192211Z 21010KT 24/M05 A2987 RMK A01 T02401052  RH  014%=      5-min Rain = 0
KHO1 192212Z 20009KT 24/M05 A2987 RMK A01 T02401049  RH  014%=      5-min Rain = 0
KHO1 192213Z 21010KT 24/M05 A2987 RMK A01 T02401050  RH  014%=      5-min Rain = 0
KHO1 192214Z 20010KT 24/M05 A2987 RMK A01 T02411049  RH  014%=      5-min Rain = 0
KHO1 192215Z 19011KT 24/M05 A2987 RMK A01 T02411052  RH  014%=      5-min Rain = 0
KHO1 192216Z 19011KT 24/M05 A2987 RMK A01 T02401052  RH  014%=      5-min Rain = 0
KHO1 192217Z 19010KT 24/M05 A2987 RMK A01 T02401052  RH  014%=      5-min Rain = 0
KHO1 192218Z 19009KT 24/M05 A2987 RMK A01 T02401051  RH  014%=      5-min Rain = 0
KHO1 192219Z 20011KT 24/M05 A2987 RMK A01 T02401050  RH  014%=      5-min Rain = 0
KHO1 192220Z 22008G13KT 24/M05 A2987 RMK A01 T02401050  RH  014%=      5-min Rain = 0
KHO1 192221Z 20009KT 24/M05 A2987 RMK A01 T02401049  RH  014%=      5-min Rain = 0
KHO1 192222Z 21008KT 24/M05 A2987 RMK A01 T02411049  RH  014%=      5-min Rain = 0
KHO1 192223Z 20007KT 24/M05 A2987 RMK A01 T02421048  RH  014%=      5-min Rain = 0
KHO1 192224Z 20009KT 24/M05 A2987 RMK A01 T02441047  RH  014%=      5-min Rain = 0
KHO1 192225Z 20008KT 24/M05 A2986 RMK A01 T02441048  RH  014%=      5-min Rain = 0
KHO1 192226Z 20009KT 24/M05 A2986 RMK A01 T02441050  RH  014%=      5-min Rain = 0
KHO1 192227Z 21009KT 24/M05 A2987 RMK A01 T02431050  RH  014%=      5-min Rain = 0
KHO1 192228Z 21010KT 24/M05 A2987 RMK A01 T02421051  RH  014%=      5-min Rain = 0
KHO1 192229Z 20011KT 24/M05 A2987 RMK A01 T02401051  RH  014%=      5-min Rain = 0
KHO1 192230Z 20008KT 24/M05 A2986 RMK A01 T02391051  RH  014%=      5-min Rain = 0
KHO1 192231Z 20008KT 24/M05 A2986 RMK A01 T02371049  RH  014%=      5-min Rain = 0
KHO1 192232Z 20008KT 24/M05 A2986 RMK A01 T02361049  RH  015%=      5-min Rain = 0
KHO1 192233Z 20007KT 24/M05 A2986 RMK A01 T02351049  RH  015%=      5-min Rain = 0
KHO1 192234Z 19007KT 23/M05 A2986 RMK A01 T02331048  RH  015%=      5-min Rain = 0
KHO1 192235Z 20007KT 23/M05 A2986 RMK A01 T02321048  RH  015%=      5-min Rain = 0
KHO1 192236Z 20009KT 23/M05 A2986 RMK A01 T02321051  RH  015%=      5-min Rain = 0
KHO1 192237Z 20009KT 23/M05 A2986 RMK A01 T02311050  RH  015%=      5-min Rain = 0
KHO1 192238Z 19008KT 23/M05 A2986 RMK A01 T02301049  RH  015%=      5-min Rain = 0
KHO1 192239Z 19009KT 23/M05 A2986 RMK A01 T02291049  RH  015%=      5-min Rain = 0
KHO1 192240Z 19008KT 23/M05 A2986 RMK A01 T02291049  RH  015%=      5-min Rain = 0
KHO1 192241Z 19008KT 23/M05 A2986 RMK A01 T02281048  RH  015%=      5-min Rain = 0
KHO1 192242Z 19007KT 23/M05 A2986 RMK A01 T02271045  RH  016%=      5-min Rain = 0
KHO1 192243Z 18007KT 23/M04 A2986 RMK A01 T02261044  RH  016%=      5-min Rain = 0
KHO1 192244Z 19007KT 23/M04 A2986 RMK A01 T02251043  RH  016%=      5-min Rain = 0
KHO1 192245Z 19007KT 23/M04 A2986 RMK A01 T02251044  RH  016%=      5-min Rain = 0
KHO1 192246Z 19008KT 23/M04 A2986 RMK A01 T02251044  RH  016%=      5-min Rain = 0
KHO1 192247Z 19008KT 22/M04 A2986 RMK A01 T02241044  RH  016%=      5-min Rain = 0
KHO1 192248Z 19007KT 22/M04 A2986 RMK A01 T02241043  RH  016%=      5-min Rain = 0
KHO1 192249Z 19007KT 22/M04 A2986 RMK A01 T02231042  RH  017%=      5-min Rain = 0
KHO1 192250Z 19007KT 22/M04 A2986 RMK A01 T02221043  RH  017%=      5-min Rain = 0
KHO1 192251Z 19007KT 22/M04 A2986 RMK A01 T02221042  RH  017%=      5-min Rain = 0
KHO1 192252Z 20007KT 22/M04 A2986 RMK A01 T02221043  RH  017%=      5-min Rain = 0
KHO1 192253Z 19007KT 22/M04 A2986 RMK A01 T02221043  RH  017%=      5-min Rain = 0
KHO1 192254Z 20007KT 22/M04 A2986 RMK A01 T02211042  RH  017%=      5-min Rain = 0
KHO1 192255Z 19007KT 22/M04 A2986 RMK A01 T02211042  RH  017%=      5-min Rain = 0
KHO1 192256Z 19007KT 22/M04 A2986 RMK A01 T02201042  RH  017%=      5-min Rain = 0
KHO1 192257Z 20007KT 22/M04 A2986 RMK A01 T02201041  RH  017%=      5-min Rain = 0
KHO1 192258Z 19007KT 22/M04 A2986 RMK A01 T02191041  RH  017%=      5-min Rain = 0
KHO1 192259Z 19007KT 22/M04 A2986 RMK A01 T02181040  RH  017%=      5-min Rain = 0
KHO1 192300Z 19006KT 22/M04 A2986 RMK A01 T02181040  RH  017%=      5-min Rain = 0
KHO1 192301Z 18007KT 22/M04 A2986 RMK A01 T02171039  RH  018%=      5-min Rain = 0
KHO1 192302Z 19007KT 22/M04 A2986 RMK A01 T02161039  RH  018%=      5-min Rain = 0
KHO1 192303Z 19007KT 22/M04 A2986 RMK A01 T02161039  RH  018%=      5-min Rain = 0
KHO1 192304Z 19006KT 22/M04 A2986 RMK A01 T02161038  RH  018%=      5-min Rain = 0
KHO1 192305Z 19007KT 22/M04 A2986 RMK A01 T02151038  RH  018%=      5-min Rain = 0
KHO1 192306Z 19006KT 21/M04 A2986 RMK A01 T02141038  RH  018%=      5-min Rain = 0
KHO1 192307Z 19007KT 21/M04 A2986 RMK A01 T02141038  RH  018%=      5-min Rain = 0
KHO1 192308Z 19006KT 21/M04 A2986 RMK A01 T02141039  RH  018%=      5-min Rain = 0
KHO1 192309Z 19007KT 21/M04 A2986 RMK A01 T02131039  RH  018%=      5-min Rain = 0
KHO1 192310Z 19006KT 21/M04 A2986 RMK A01 T02131039  RH  018%=      5-min Rain = 0
KHO1 192311Z 19006KT 21/M04 A2986 RMK A01 T02121038  RH  018%=      5-min Rain = 0
KHO1 192312Z 19006KT 21/M04 A2986 RMK A01 T02101037  RH  019%=      5-min Rain = 0
KHO1 192313Z 19007KT 21/M04 A2986 RMK A01 T02091037  RH  019%=      5-min Rain = 0
KHO1 192314Z 19006KT 21/M04 A2986 RMK A01 T02081036  RH  019%=      5-min Rain = 0
KHO1 192315Z 19007KT 21/M04 A2986 RMK A01 T02081036  RH  019%=      5-min Rain = 0
KHO1 192316Z 19006KT 21/M04 A2986 RMK A01 T02071035  RH  019%=      5-min Rain = 0
KHO1 192317Z 19006KT 21/M03 A2986 RMK A01 T02061034  RH  020%=      5-min Rain = 0
KHO1 192318Z 19006KT 21/M03 A2986 RMK A01 T02051034  RH  020%=      5-min Rain = 0
KHO1 192319Z 19006KT 20/M03 A2986 RMK A01 T02041033  RH  020%=      5-min Rain = 0
KHO1 192320Z 19007KT 20/M03 A2986 RMK A01 T02041033  RH  020%=      5-min Rain = 0
KHO1 192321Z 19007KT 20/M03 A2986 RMK A01 T02031033  RH  020%=      5-min Rain = 0
KHO1 192322Z 19006KT 20/M03 A2986 RMK A01 T02031033  RH  020%=      5-min Rain = 0
KHO1 192323Z 19006KT 20/M03 A2986 RMK A01 T02021033  RH  020%=      5-min Rain = 0
KHO1 192324Z 19006KT 20/M03 A2986 RMK A01 T02011033  RH  020%=      5-min Rain = 0
KHO1 192325Z 19006KT 20/M03 A2986 RMK A01 T02011032  RH  020%=      5-min Rain = 0
KHO1 192326Z 19007KT 20/M03 A2986 RMK A01 T02011033  RH  020%=      5-min Rain = 0
KHO1 192327Z 19007KT 20/M03 A2986 RMK A01 T02011033  RH  020%=      5-min Rain = 0
KHO1 192328Z 19007KT 20/M03 A2986 RMK A01 T02011033  RH  020%=      5-min Rain = 0
KHO1 192329Z 19007KT 20/M03 A2986 RMK A01 T02011033  RH  020%=      5-min Rain = 0
KHO1 192330Z 19007KT 20/M03 A2986 RMK A01 T02011033  RH  020%=      5-min Rain = 0
KHO1 192331Z 19007KT 20/M03 A2986 RMK A01 T02011032  RH  021%=      5-min Rain = 0
KHO1 192332Z 19008KT 20/M03 A2986 RMK A01 T02001032  RH  021%=      5-min Rain = 0
KHO1 192333Z 19008KT 20/M03 A2986 RMK A01 T02001031  RH  021%=      5-min Rain = 0
KHO1 192334Z 19008KT 20/M03 A2986 RMK A01 T01991032  RH  021%=      5-min Rain = 0
KHO1 192335Z 19008KT 20/M03 A2986 RMK A01 T01991032  RH  021%=      5-min Rain = 0
KHO1 192336Z 19007KT 20/M03 A2986 RMK A01 T01981031  RH  021%=      5-min Rain = 0
KHO1 192337Z 19007KT 20/M03 A2986 RMK A01 T01981032  RH  021%=      5-min Rain = 0
KHO1 192338Z 19007KT 20/M03 A2986 RMK A01 T01971031  RH  021%=      5-min Rain = 0
KHO1 192339Z 19007KT 20/M03 A2986 RMK A01 T01971032  RH  021%=      5-min Rain = 0
KHO1 192340Z 19007KT 20/M03 A2986 RMK A01 T01961032  RH  021%=      5-min Rain = 0
KHO1 192341Z 19008KT 20/M03 A2986 RMK A01 T01961032  RH  021%=      5-min Rain = 0
KHO1 192342Z 19008KT 20/M03 A2986 RMK A01 T01961032  RH  021%=      5-min Rain = 0
KHO1 192343Z 19008KT 20/M03 A2986 RMK A01 T01961032  RH  021%=      5-min Rain = 0
KHO1 192344Z 19008KT 20/M03 A2986 RMK A01 T01961031  RH  021%=      5-min Rain = 0
KHO1 192345Z 18008KT 20/M03 A2986 RMK A01 T01951031  RH  022%=      5-min Rain = 0
KHO1 192346Z 19008KT 19/M03 A2986 RMK A01 T01941031  RH  022%=      5-min Rain = 0
KHO1 192347Z 19008KT 19/M03 A2986 RMK A01 T01941031  RH  022%=      5-min Rain = 0
KHO1 192348Z 19008KT 19/M03 A2986 RMK A01 T01941031  RH  022%=      5-min Rain = 0
KHO1 192349Z 19009KT 19/M03 A2986 RMK A01 T01931031  RH  022%=      5-min Rain = 0
KHO1 192350Z 19008KT 19/M03 A2986 RMK A01 T01921031  RH  022%=      5-min Rain = 0
KHO1 192351Z 19008KT 19/M03 A2986 RMK A01 T01911031  RH  022%=      5-min Rain = 0
KHO1 192352Z 19008KT 19/M03 A2986 RMK A01 T01911031  RH  022%=      5-min Rain = 0
KHO1 192353Z 19008KT 19/M03 A2986 RMK A01 T01901030  RH  022%=      5-min Rain = 0
KHO1 192354Z 19008KT 19/M03 A2986 RMK A01 T01901030  RH  022%=      5-min Rain = 0
KHO1 192355Z 19009KT 19/M03 A2986 RMK A01 T01901030  RH  022%=      5-min Rain = 0
KHO1 192356Z 18008KT 19/M03 A2986 RMK A01 T01901030  RH  022%=      5-min Rain = 0
KHO1 192357Z 19008KT 19/M03 A2986 RMK A01 T01911030  RH  022%=      5-min Rain = 0
KHO1 192358Z 18008KT 19/M03 A2986 RMK A01 T01921029  RH  022%=      5-min Rain = 0
KHO1 192359Z 19008KT 19/M03 A2986 RMK A01 T01921030  RH  022%=      5-min Rain = 0
KHO1 200000Z 18008KT 19/M03 A2986 RMK A01 T01931030  RH  022%=      5-min Rain = 0
KHO1 200001Z 18007KT 19/M03 A2986 RMK A01 T01941030  RH  022%=      5-min Rain = 0
KHO1 200002Z 18007KT 19/M03 A2986 RMK A01 T01941029  RH  022%=      5-min Rain = 0
KHO1 200003Z 18007KT 19/M03 A2987 RMK A01 T01931029  RH  022%=      5-min Rain = 0
KHO1 200004Z 19006KT 19/M03 A2987 RMK A01 T01921029  RH  022%=      5-min Rain = 0
KHO1 200005Z 18006KT 19/M03 A2987 RMK A01 T01921028  RH  022%=      5-min Rain = 0
KHO1 200006Z 18006KT 19/M03 A2987 RMK A01 T01901028  RH  023%=      5-min Rain = 0
KHO1 200007Z 18006KT 19/M03 A2987 RMK A01 T01901027  RH  023%=      5-min Rain = 0
KHO1 200008Z 19006KT 19/M03 A2987 RMK A01 T01891027  RH  023%=      5-min Rain = 0
KHO1 200009Z 19006KT 19/M03 A2987 RMK A01 T01881026  RH  023%=      5-min Rain = 0
KHO1 200010Z 18005KT 19/M03 A2987 RMK A01 T01871026  RH  024%=      5-min Rain = 0
KHO1 200011Z 19006KT 19/M03 A2987 RMK A01 T01851026  RH  024%=      5-min Rain = 0
KHO1 200012Z 18006KT 19/M03 A2987 RMK A01 T01851025  RH  024%=      5-min Rain = 0
KHO1 200013Z 18007KT 19/M03 A2987 RMK A01 T01851026  RH  024%=      5-min Rain = 0
KHO1 200014Z 19006KT 19/M03 A2987 RMK A01 T01861025  RH  024%=      5-min Rain = 0
KHO1 200015Z 18006KT 19/M02 A2987 RMK A01 T01861024  RH  024%=      5-min Rain = 0
KHO1 200016Z 18006KT 19/M02 A2987 RMK A01 T01851024  RH  024%=      5-min Rain = 0
KHO1 200017Z 18006KT 18/M02 A2987 RMK A01 T01841024  RH  024%=      5-min Rain = 0
KHO1 200018Z 18006KT 19/M02 A2987 RMK A01 T01851024  RH  024%=      5-min Rain = 0
KHO1 200019Z 18007KT 19/M02 A2987 RMK A01 T01861024  RH  024%=      5-min Rain = 0
KHO1 200020Z 18007KT 19/M02 A2987 RMK A01 T01861024  RH  024%=      5-min Rain = 0
KHO1 200021Z 18007KT 19/M02 A2987 RMK A01 T01871024  RH  024%=      5-min Rain = 0
KHO1 200022Z 18007KT 19/M02 A2987 RMK A01 T01861024  RH  024%=      5-min Rain = 0
KHO1 200023Z 18007KT 19/M02 A2987 RMK A01 T01871024  RH  024%=      5-min Rain = 0
KHO1 200024Z 18007KT 19/M02 A2987 RMK A01 T01861024  RH  024%=      5-min Rain = 0
KHO1 200025Z 18007KT 19/M02 A2987 RMK A01 T01861024  RH  024%=      5-min Rain = 0
KHO1 200026Z 18007KT 19/M02 A2987 RMK A01 T01861024  RH  024%=      5-min Rain = 0
KHO1 200027Z 18007KT 19/M02 A2987 RMK A01 T01851024  RH  024%=      5-min Rain = 0
KHO1 200028Z 18007KT 19/M02 A2987 RMK A01 T01851023  RH  024%=      5-min Rain = 0
KHO1 200029Z 18007KT 18/M02 A2987 RMK A01 T01841023  RH  024%=      5-min Rain = 0
KHO1 200030Z 18007KT 18/M02 A2987 RMK A01 T01831023  RH  024%=      5-min Rain = 0
KHO1 200031Z 18007KT 18/M02 A2987 RMK A01 T01831023  RH  025%=      5-min Rain = 0
KHO1 200032Z 18006KT 18/M02 A2987 RMK A01 T01821023  RH  025%=      5-min Rain = 0
KHO1 200033Z 18007KT 18/M02 A2987 RMK A01 T01811023  RH  025%=      5-min Rain = 0
KHO1 200034Z 18007KT 18/M02 A2987 RMK A01 T01811023  RH  025%=      5-min Rain = 0
KHO1 200035Z 18007KT 18/M02 A2987 RMK A01 T01811022  RH  025%=      5-min Rain = 0
KHO1 200036Z 18006KT 18/M02 A2987 RMK A01 T01801022  RH  025%=      5-min Rain = 0
KHO1 200037Z 18006KT 18/M02 A2987 RMK A01 T01801022  RH  025%=      5-min Rain = 0
KHO1 200038Z 18006KT 18/M02 A2987 RMK A01 T01791021  RH  025%=      5-min Rain = 0
KHO1 200039Z 18006KT 18/M02 A2987 RMK A01 T01791021  RH  026%=      5-min Rain = 0
KHO1 200040Z 18006KT 18/M02 A2987 RMK A01 T01781021  RH  026%=      5-min Rain = 0
KHO1 200041Z 18006KT 18/M02 A2987 RMK A01 T01771021  RH  026%=      5-min Rain = 0
KHO1 200042Z 18006KT 18/M02 A2987 RMK A01 T01761020  RH  026%=      5-min Rain = 0
KHO1 200043Z 18006KT 18/M02 A2987 RMK A01 T01761020  RH  026%=      5-min Rain = 0
KHO1 200044Z 18007KT 18/M02 A2987 RMK A01 T01751020  RH  026%=      5-min Rain = 0
KHO1 200045Z 18006KT 18/M02 A2987 RMK A01 T01751020  RH  026%=      5-min Rain = 0
KHO1 200046Z 18005KT 18/M02 A2988 RMK A01 T01751020  RH  027%=      5-min Rain = 0
KHO1 200047Z 18005KT 17/M02 A2988 RMK A01 T01741019  RH  027%=      5-min Rain = 0
KHO1 200048Z 18005KT 17/M02 A2987 RMK A01 T01741020  RH  027%=      5-min Rain = 0
KHO1 200049Z 18005KT 17/M02 A2988 RMK A01 T01731020  RH  027%=      5-min Rain = 0
KHO1 200050Z 18005KT 17/M02 A2988 RMK A01 T01731019  RH  027%=      5-min Rain = 0
KHO1 200051Z 18004KT 17/M02 A2988 RMK A01 T01721019  RH  027%=      5-min Rain = 0
KHO1 200052Z 18005KT 17/M02 A2988 RMK A01 T01711018  RH  027%=      5-min Rain = 0
KHO1 200053Z 19005KT 17/M02 A2988 RMK A01 T01701018  RH  028%=      5-min Rain = 0
KHO1 200054Z 19005KT 17/M02 A2988 RMK A01 T01701017  RH  028%=      5-min Rain = 0
KHO1 200055Z 19005KT 17/M02 A2988 RMK A01 T01691017  RH  028%=      5-min Rain = 0
KHO1 200056Z 19005KT 17/M02 A2988 RMK A01 T01681017  RH  028%=      5-min Rain = 0
KHO1 200057Z 19006KT 17/M02 A2988 RMK A01 T01681018  RH  028%=      5-min Rain = 0
KHO1 200058Z 19006KT 17/M02 A2988 RMK A01 T01681019  RH  028%=      5-min Rain = 0
KHO1 200059Z 19006KT 17/M02 A2988 RMK A01 T01681019  RH  028%=      5-min Rain = 0
KHO1 200100Z 19005KT 17/M02 A2988 RMK A01 T01681019  RH  028%=      5-min Rain = 0
KHO1 200101Z 19006KT 17/M02 A2988 RMK A01 T01671019  RH  028%=      5-min Rain = 0
KHO1 200102Z 19006KT 17/M02 A2988 RMK A01 T01661019  RH  028%=      5-min Rain = 0
KHO1 200103Z 19006KT 17/M02 A2988 RMK A01 T01661018  RH  028%=      5-min Rain = 0
KHO1 200104Z 19006KT 17/M02 A2988 RMK A01 T01651019  RH  028%=      5-min Rain = 0
KHO1 200105Z 18006KT 17/M02 A2988 RMK A01 T01651019  RH  028%=      5-min Rain = 0
KHO1 200106Z 18006KT 17/M02 A2988 RMK A01 T01651019  RH  028%=      5-min Rain = 0
KHO1 200107Z 18006KT 17/M02 A2988 RMK A01 T01661018  RH  028%=      5-min Rain = 0
KHO1 200108Z 19006KT 17/M02 A2988 RMK A01 T01661018  RH  028%=      5-min Rain = 0
KHO1 200109Z 19005KT 17/M02 A2988 RMK A01 T01661018  RH  028%=      5-min Rain = 0
KHO1 200110Z 19005KT 17/M02 A2988 RMK A01 T01651018  RH  029%=      5-min Rain = 0
KHO1 200111Z 19006KT 16/M02 A2987 RMK A01 T01641018  RH  029%=      5-min Rain = 0
KHO1 200112Z 19005KT 16/M02 A2987 RMK A01 T01631018  RH  029%=      5-min Rain = 0
KHO1 200113Z 19006KT 16/M02 A2987 RMK A01 T01621018  RH  029%=      5-min Rain = 0
KHO1 200114Z 19006KT 16/M02 A2987 RMK A01 T01611018  RH  029%=      5-min Rain = 0
KHO1 200115Z 19006KT 16/M02 A2987 RMK A01 T01611018  RH  029%=      5-min Rain = 0
KHO1 200116Z 19006KT 16/M02 A2987 RMK A01 T01611018  RH  029%=      5-min Rain = 0
KHO1 200117Z 19006KT 16/M02 A2987 RMK A01 T01601018  RH  029%=      5-min Rain = 0
KHO1 200118Z 19006KT 16/M02 A2987 RMK A01 T01591018  RH  030%=      5-min Rain = 0
KHO1 200119Z 19007KT 16/M02 A2987 RMK A01 T01591018  RH  030%=      5-min Rain = 0
KHO1 200120Z 19007KT 16/M02 A2987 RMK A01 T01591019  RH  030%=      5-min Rain = 0
KHO1 200121Z 19007KT 16/M02 A2987 RMK A01 T01591019  RH  030%=      5-min Rain = 0
KHO1 200122Z 19008KT 16/M02 A2987 RMK A01 T01601020  RH  029%=      5-min Rain = 0
KHO1 200123Z 19008KT 16/M02 A2987 RMK A01 T01611020  RH  029%=      5-min Rain = 0
KHO1 200124Z 19008KT 16/M02 A2987 RMK A01 T01621020  RH  029%=      5-min Rain = 0
KHO1 200125Z 19009KT 16/M02 A2987 RMK A01 T01621020  RH  029%=      5-min Rain = 0
KHO1 200126Z 19008KT 16/M02 A2987 RMK A01 T01631021  RH  028%=      5-min Rain = 0
KHO1 200127Z 19008KT 16/M02 A2987 RMK A01 T01641021  RH  028%=      5-min Rain = 0
KHO1 200128Z 19008KT 17/M02 A2987 RMK A01 T01661022  RH  028%=      5-min Rain = 0
KHO1 200129Z 19008KT 17/M02 A2987 RMK A01 T01671022  RH  027%=      5-min Rain = 0
KHO1 200130Z 19008KT 17/M02 A2987 RMK A01 T01681022  RH  027%=      5-min Rain = 0
KHO1 200131Z 19008KT 17/M02 A2987 RMK A01 T01691022  RH  027%=      5-min Rain = 0
KHO1 200132Z 19008KT 17/M02 A2988 RMK A01 T01691022  RH  027%=      5-min Rain = 0
KHO1 200133Z 18008KT 17/M02 A2987 RMK A01 T01691023  RH  027%=      5-min Rain = 0
KHO1 200134Z 18008KT 17/M02 A2987 RMK A01 T01701023  RH  027%=      5-min Rain = 0
KHO1 200135Z 18008KT 17/M02 A2987 RMK A01 T01701023  RH  027%=      5-min Rain = 0
KHO1 200136Z 19007KT 17/M02 A2987 RMK A01 T01701023  RH  027%=      5-min Rain = 0
KHO1 200137Z 19008KT 17/M02 A2987 RMK A01 T01711024  RH  026%=      5-min Rain = 0
KHO1 200138Z 19009KT 17/M02 A2987 RMK A01 T01711024  RH  026%=      5-min Rain = 0
KHO1 200139Z 18010KT 17/M02 A2987 RMK A01 T01711024  RH  026%=      5-min Rain = 0
KHO1 200140Z 18009KT 17/M02 A2987 RMK A01 T01711024  RH  026%=      5-min Rain = 0
KHO1 200141Z 18009KT 17/M02 A2987 RMK A01 T01711024  RH  026%=      5-min Rain = 0
KHO1 200142Z 18009KT 17/M02 A2987 RMK A01 T01711024  RH  026%=      5-min Rain = 0
KHO1 200143Z 19008KT 17/M02 A2987 RMK A01 T01711024  RH  026%=      5-min Rain = 0
KHO1 200144Z 19008KT 17/M02 A2987 RMK A01 T01711024  RH  026%=      5-min Rain = 0
KHO1 200145Z 19008KT 17/M02 A2987 RMK A01 T01701024  RH  026%=      5-min Rain = 0
KHO1 200146Z 19008KT 17/M02 A2987 RMK A01 T01691024  RH  027%=      5-min Rain = 0
KHO1 200147Z 20008KT 17/M02 A2987 RMK A01 T01681024  RH  027%=      5-min Rain = 0
KHO1 200148Z 19008KT 17/M02 A2987 RMK A01 T01671024  RH  027%=      5-min Rain = 0
KHO1 200149Z 19008KT 17/M02 A2987 RMK A01 T01671024  RH  027%=      5-min Rain = 0
KHO1 200150Z 19009KT 17/M02 A2987 RMK A01 T01661024  RH  027%=      5-min Rain = 0
KHO1 200151Z 19009KT 17/M02 A2987 RMK A01 T01671024  RH  027%=      5-min Rain = 0
KHO1 200152Z 19008KT 17/M02 A2987 RMK A01 T01671024  RH  027%=      5-min Rain = 0
KHO1 200153Z 19008KT 17/M02 A2987 RMK A01 T01661024  RH  027%=      5-min Rain = 0
KHO1 200154Z 19008KT 17/M03 A2987 RMK A01 T01671025  RH  027%=      5-min Rain = 0
KHO1 200155Z 19009KT 17/M03 A2987 RMK A01 T01681025  RH  027%=      5-min Rain = 0
KHO1 200156Z 19008KT 17/M03 A2987 RMK A01 T01681025  RH  027%=      5-min Rain = 0
KHO1 200157Z 19008KT 17/M03 A2987 RMK A01 T01681025  RH  027%=      5-min Rain = 0
KHO1 200158Z 19008KT 17/M03 A2987 RMK A01 T01681025  RH  027%=      5-min Rain = 0
KHO1 200159Z 19009KT 17/M03 A2987 RMK A01 T01661025  RH  027%=      5-min Rain = 0
KHO1 200200Z 19008KT 17/M02 A2987 RMK A01 T01651024  RH  027%=      5-min Rain = 0
KHO1 200201Z 20007KT 16/M02 A2987 RMK A01 T01641024  RH  027%=      5-min Rain = 0
KHO1 200202Z 19008KT 16/M02 A2987 RMK A01 T01631024  RH  028%=      5-min Rain = 0
KHO1 200203Z 18009KT 16/M02 A2987 RMK A01 T01621024  RH  028%=      5-min Rain = 0
KHO1 200204Z 18009KT 16/M02 A2987 RMK A01 T01631023  RH  028%=      5-min Rain = 0
KHO1 200205Z 18009KT 16/M02 A2987 RMK A01 T01631023  RH  028%=      5-min Rain = 0
KHO1 200206Z 19009KT 16/M02 A2987 RMK A01 T01641023  RH  028%=      5-min Rain = 0
KHO1 200207Z 18009KT 17/M02 A2987 RMK A01 T01651023  RH  028%=      5-min Rain = 0
KHO1 200208Z 18008KT 17/M02 A2987 RMK A01 T01651023  RH  028%=      5-min Rain = 0
KHO1 200209Z 18008KT 16/M02 A2988 RMK A01 T01641023  RH  028%=      5-min Rain = 0
KHO1 200210Z 18008KT 16/M02 A2988 RMK A01 T01641022  RH  028%=      5-min Rain = 0
KHO1 200211Z 18008KT 16/M02 A2988 RMK A01 T01641022  RH  028%=      5-min Rain = 0
KHO1 200212Z 18008KT 16/M02 A2988 RMK A01 T01641022  RH  028%=      5-min Rain = 0
KHO1 200213Z 19007KT 16/M02 A2988 RMK A01 T01631022  RH  028%=      5-min Rain = 0
KHO1 200214Z 19008KT 16/M02 A2988 RMK A01 T01631022  RH  028%=      5-min Rain = 0
KHO1 200215Z 19007KT 16/M02 A2988 RMK A01 T01631022  RH  028%=      5-min Rain = 0
KHO1 200216Z 19008KT 16/M02 A2988 RMK A01 T01631022  RH  028%=      5-min Rain = 0
KHO1 200217Z 19006KT 16/M02 A2988 RMK A01 T01621022  RH  028%=      5-min Rain = 0
KHO1 200218Z 19007KT 16/M02 A2988 RMK A01 T01611022  RH  028%=      5-min Rain = 0
KHO1 200219Z 19007KT 16/M02 A2988 RMK A01 T01601022  RH  029%=      5-min Rain = 0
KHO1 200220Z 19007KT 16/M02 A2988 RMK A01 T01591022  RH  029%=      5-min Rain = 0
KHO1 200221Z 19007KT 16/M02 A2988 RMK A01 T01581022  RH  029%=      5-min Rain = 0
KHO1 200222Z 19007KT 16/M02 A2988 RMK A01 T01581022  RH  029%=      5-min Rain = 0
KHO1 200223Z 19007KT 16/M02 A2988 RMK A01 T01591022  RH  029%=      5-min Rain = 0
KHO1 200224Z 19008KT 16/M02 A2988 RMK A01 T01591022  RH  029%=      5-min Rain = 0
KHO1 200225Z 18008KT 16/M02 A2988 RMK A01 T01611023  RH  028%=      5-min Rain = 0
KHO1 200226Z 18008KT 16/M02 A2988 RMK A01 T01631023  RH  028%=      5-min Rain = 0
KHO1 200227Z 18008KT 16/M02 A2988 RMK A01 T01641023  RH  028%=      5-min Rain = 0
KHO1 200228Z 18008KT 17/M02 A2988 RMK A01 T01651023  RH  027%=      5-min Rain = 0
KHO1 200229Z 18009KT 17/M02 A2988 RMK A01 T01681024  RH  027%=      5-min Rain = 0
KHO1 200230Z 18010KT 17/M03 A2988 RMK A01 T01711025  RH  026%=      5-min Rain = 0
KHO1 200231Z 18010KT 17/M03 A2988 RMK A01 T01741026  RH  025%=      5-min Rain = 0
KHO1 200232Z 18009KT 18/M03 A2988 RMK A01 T01751027  RH  025%=      5-min Rain = 0
KHO1 200233Z 18010KT 18/M03 A2988 RMK A01 T01751027  RH  025%=      5-min Rain = 0
KHO1 200234Z 18009KT 18/M03 A2988 RMK A01 T01751027  RH  025%=      5-min Rain = 0
KHO1 200235Z 18009KT 18/M03 A2988 RMK A01 T01751028  RH  025%=      5-min Rain = 0
KHO1 200236Z 18008KT 17/M03 A2988 RMK A01 T01741027  RH  025%=      5-min Rain = 0
KHO1 200237Z 19008KT 17/M03 A2988 RMK A01 T01731027  RH  025%=      5-min Rain = 0
KHO1 200238Z 19008KT 17/M03 A2988 RMK A01 T01731027  RH  025%=      5-min Rain = 0
KHO1 200239Z 19010KT 17/M03 A2988 RMK A01 T01721027  RH  026%=      5-min Rain = 0
KHO1 200240Z 19010KT 17/M03 A2988 RMK A01 T01711028  RH  026%=      5-min Rain = 0
KHO1 200241Z 19011KT 17/M03 A2988 RMK A01 T01711028  RH  025%=      5-min Rain = 0
KHO1 200242Z 19011KT 17/M03 A2988 RMK A01 T01721029  RH  025%=      5-min Rain = 0
KHO1 200243Z 19011KT 17/M03 A2988 RMK A01 T01731029  RH  025%=      5-min Rain = 0
KHO1 200244Z 19010KT 17/M03 A2988 RMK A01 T01721028  RH  025%=      5-min Rain = 0
KHO1 200245Z 19010KT 17/M03 A2988 RMK A01 T01711028  RH  025%=      5-min Rain = 0
KHO1 200246Z 19011KT 17/M03 A2988 RMK A01 T01711028  RH  026%=      5-min Rain = 0
KHO1 200247Z 19010KT 17/M03 A2988 RMK A01 T01701028  RH  026%=      5-min Rain = 0
KHO1 200248Z 19010KT 17/M03 A2988 RMK A01 T01701028  RH  026%=      5-min Rain = 0
KHO1 200249Z 20010KT 17/M03 A2989 RMK A01 T01691028  RH  026%=      5-min Rain = 0
KHO1 200250Z 19009KT 17/M03 A2989 RMK A01 T01681027  RH  026%=      5-min Rain = 0
KHO1 200251Z 19009KT 17/M03 A2989 RMK A01 T01671027  RH  026%=      5-min Rain = 0
KHO1 200252Z 19009KT 17/M03 A2989 RMK A01 T01661027  RH  026%=      5-min Rain = 0
KHO1 200253Z 19010KT 17/M03 A2989 RMK A01 T01661028  RH  026%=      5-min Rain = 0
KHO1 200254Z 19010KT 17/M03 A2989 RMK A01 T01671027  RH  026%=      5-min Rain = 0
KHO1 200255Z 19010KT 17/M03 A2989 RMK A01 T01671027  RH  026%=      5-min Rain = 0
KHO1 200256Z 19011KT 17/M03 A2989 RMK A01 T01671028  RH  026%=      5-min Rain = 0
KHO1 200257Z 19010KT 17/M03 A2989 RMK A01 T01661027  RH  026%=      5-min Rain = 0
KHO1 200258Z 19010KT 17/M03 A2989 RMK A01 T01651027  RH  027%=      5-min Rain = 0
KHO1 200259Z 19009KT 17/M03 A2989 RMK A01 T01651027  RH  027%=      5-min Rain = 0
KHO1 200300Z 19010KT 17/M03 A2989 RMK A01 T01651027  RH  027%=      5-min Rain = 0
KHO1 200301Z 19010KT 17/M03 A2989 RMK A01 T01651027  RH  027%=      5-min Rain = 0
KHO1 200302Z 19010KT 16/M03 A2989 RMK A01 T01641027  RH  027%=      5-min Rain = 0
KHO1 200303Z 19009KT 16/M03 A2989 RMK A01 T01641027  RH  027%=      5-min Rain = 0
KHO1 200304Z 19010KT 16/M03 A2989 RMK A01 T01641027  RH  027%=      5-min Rain = 0
KHO1 200305Z 19009KT 16/M03 A2989 RMK A01 T01641027  RH  027%=      5-min Rain = 0
KHO1 200306Z 19010KT 16/M03 A2989 RMK A01 T01641027  RH  027%=      5-min Rain = 0
KHO1 200307Z 19009KT 16/M03 A2989 RMK A01 T01631027  RH  027%=      5-min Rain = 0
KHO1 200308Z 19009KT 16/M03 A2989 RMK A01 T01621026  RH  027%=      5-min Rain = 0
KHO1 200309Z 19008KT 16/M03 A2989 RMK A01 T01611026  RH  028%=      5-min Rain = 0
KHO1 200310Z 19009KT 16/M03 A2989 RMK A01 T01611026  RH  028%=      5-min Rain = 0
KHO1 200311Z 19008KT 16/M03 A2989 RMK A01 T01601026  RH  028%=      5-min Rain = 0
KHO1 200312Z 20009KT 16/M03 A2989 RMK A01 T01601026  RH  028%=      5-min Rain = 0
KHO1 200313Z 20008KT 16/M03 A2989 RMK A01 T01591026  RH  028%=      5-min Rain = 0
KHO1 200314Z 19008KT 16/M03 A2989 RMK A01 T01581026  RH  028%=      5-min Rain = 0
KHO1 200315Z 19009KT 16/M03 A2989 RMK A01 T01581026  RH  028%=      5-min Rain = 0
KHO1 200316Z 18009KT 16/M03 A2989 RMK A01 T01581026  RH  028%=      5-min Rain = 0
KHO1 200317Z 18009KT 16/M03 A2989 RMK A01 T01581025  RH  028%=      5-min Rain = 0
KHO1 200318Z 18009KT 16/M03 A2989 RMK A01 T01581025  RH  028%=      5-min Rain = 0
KHO1 200319Z 19008KT 16/M03 A2989 RMK A01 T01571025  RH  028%=      5-min Rain = 0
KHO1 200320Z 19008KT 16/M03 A2989 RMK A01 T01571025  RH  029%=      5-min Rain = 0
KHO1 200321Z 19008KT 16/M03 A2989 RMK A01 T01561025  RH  029%=      5-min Rain = 0
KHO1 200322Z 19008KT 16/M02 A2989 RMK A01 T01551024  RH  029%=      5-min Rain = 0
KHO1 200323Z 19008KT 15/M02 A2989 RMK A01 T01541024  RH  029%=      5-min Rain = 0
KHO1 200324Z 18009KT 15/M02 A2989 RMK A01 T01541024  RH  029%=      5-min Rain = 0
KHO1 200325Z 18008KT 15/M02 A2989 RMK A01 T01541023  RH  030%=      5-min Rain = 0
KHO1 200326Z 19008KT 15/M02 A2989 RMK A01 T01531023  RH  030%=      5-min Rain = 0
KHO1 200327Z 19007KT 15/M02 A2989 RMK A01 T01531022  RH  030%=      5-min Rain = 0
KHO1 200328Z 19008KT 15/M02 A2989 RMK A01 T01521022  RH  030%=      5-min Rain = 0
KHO1 200329Z 18008KT 15/M02 A2989 RMK A01 T01521022  RH  030%=      5-min Rain = 0
KHO1 200330Z 18008KT 15/M02 A2989 RMK A01 T01521022  RH  030%=      5-min Rain = 0
KHO1 200331Z 19008KT 15/M02 A2989 RMK A01 T01511022  RH  030%=      5-min Rain = 0
KHO1 200332Z 18008KT 15/M02 A2989 RMK A01 T01511021  RH  031%=      5-min Rain = 0
KHO1 200333Z 19008KT 15/M02 A2989 RMK A01 T01511021  RH  031%=      5-min Rain = 0
KHO1 200334Z 19007KT 15/M02 A2989 RMK A01 T01511021  RH  031%=      5-min Rain = 0
KHO1 200335Z 19008KT 15/M02 A2989 RMK A01 T01501021  RH  031%=      5-min Rain = 0
KHO1 200336Z 19008KT 15/M02 A2989 RMK A01 T01501021  RH  031%=      5-min Rain = 0
KHO1 200337Z 19008KT 15/M02 A2989 RMK A01 T01491021  RH  031%=      5-min Rain = 0
KHO1 200338Z 20008KT 15/M02 A2989 RMK A01 T01481020  RH  031%=      5-min Rain = 0
KHO1 200339Z 19008KT 15/M02 A2989 RMK A01 T01481020  RH  031%=      5-min Rain = 0
KHO1 200340Z 20008KT 15/M02 A2989 RMK A01 T01471019  RH  032%=      5-min Rain = 0
KHO1 200341Z 19008KT 15/M02 A2989 RMK A01 T01461019  RH  032%=      5-min Rain = 0
KHO1 200342Z 19008KT 15/M02 A2989 RMK A01 T01461018  RH  032%=      5-min Rain = 0
KHO1 200343Z 19008KT 15/M02 A2989 RMK A01 T01461017  RH  032%=      5-min Rain = 0
KHO1 200344Z 19008KT 15/M02 A2989 RMK A01 T01461017  RH  033%=      5-min Rain = 0
KHO1 200345Z 20007KT 15/M02 A2989 RMK A01 T01451016  RH  033%=      5-min Rain = 0
KHO1 200346Z 19007KT 14/M02 A2989 RMK A01 T01441015  RH  033%=      5-min Rain = 0
KHO1 200347Z 19007KT 14/M02 A2989 RMK A01 T01441015  RH  033%=      5-min Rain = 0
KHO1 200348Z 19006KT 14/M01 A2989 RMK A01 T01441014  RH  034%=      5-min Rain = 0
KHO1 200349Z 19007KT 14/M01 A2989 RMK A01 T01431013  RH  034%=      5-min Rain = 0
KHO1 200350Z 19006KT 14/M01 A2989 RMK A01 T01431012  RH  034%=      5-min Rain = 0
KHO1 200351Z 19006KT 14/M01 A2989 RMK A01 T01421012  RH  035%=      5-min Rain = 0
KHO1 200352Z 19006KT 14/M01 A2989 RMK A01 T01421011  RH  035%=      5-min Rain = 0
KHO1 200353Z 19006KT 14/M01 A2989 RMK A01 T01411010  RH  035%=      5-min Rain = 0
KHO1 200354Z 20006KT 14/M01 A2989 RMK A01 T01411009  RH  036%=      5-min Rain = 0
KHO1 200355Z 20006KT 14/M01 A2989 RMK A01 T01401007  RH  036%=      5-min Rain = 0
KHO1 200356Z 19007KT 14/M01 A2989 RMK A01 T01411006  RH  036%=      5-min Rain = 0
KHO1 200357Z 20007KT 14/M01 A2989 RMK A01 T01401006  RH  037%=      5-min Rain = 0
KHO1 200358Z 19007KT 14/M01 A2989 RMK A01 T01401005  RH  037%=      5-min Rain = 0
KHO1 200359Z 19007KT 14/M00 A2989 RMK A01 T01401004  RH  037%=      5-min Rain = 0
KHO1 200400Z 19007KT 14/M00 A2989 RMK A01 T01411002  RH  037%=      5-min Rain = 0
KHO1 200401Z 19007KT 14/M00 A299 RMK A01 T01411001  RH  038%=      5-min Rain = 0
KHO1 200402Z 20008KT 14/00 A299 RMK A01 T014100-0  RH  038%=      5-min Rain = 0
KHO1 200403Z 20008KT 14/00 A299 RMK A01 T01410001  RH  038%=      5-min Rain = 0
KHO1 200404Z 19007KT 14/00 A299 RMK A01 T01410002  RH  039%=      5-min Rain = 0
KHO1 200405Z 20008KT 14/00 A299 RMK A01 T01410003  RH  039%=      5-min Rain = 0
KHO1 200406Z 19008KT 14/01 A299 RMK A01 T01410005  RH  039%=      5-min Rain = 0
KHO1 200407Z 19009KT 14/01 A299 RMK A01 T01420006  RH  040%=      5-min Rain = 0
KHO1 200408Z 19009KT 14/01 A299 RMK A01 T01430007  RH  040%=      5-min Rain = 0
KHO1 200409Z 19009KT 14/01 A299 RMK A01 T01430008  RH  040%=      5-min Rain = 0
KHO1 200410Z 19008KT 14/01 A299 RMK A01 T01440009  RH  040%=      5-min Rain = 0
KHO1 200411Z 19009KT 14/01 A299 RMK A01 T01440011  RH  040%=      5-min Rain = 0
KHO1 200412Z 19008KT 15/01 A299 RMK A01 T01450011  RH  040%=      5-min Rain = 0
KHO1 200413Z 19009KT 15/01 A299 RMK A01 T01450012  RH  040%=      5-min Rain = 0
KHO1 200414Z 19009KT 15/01 A299 RMK A01 T01460014  RH  041%=      5-min Rain = 0
KHO1 200415Z 19008KT 15/02 A299 RMK A01 T01460015  RH  041%=      5-min Rain = 0
KHO1 200416Z 19009KT 15/02 A299 RMK A01 T01460016  RH  041%=      5-min Rain = 0
KHO1 200417Z 19008KT 15/02 A299 RMK A01 T01470018  RH  042%=      5-min Rain = 0
KHO1 200418Z 19009KT 15/02 A299 RMK A01 T01470019  RH  042%=      5-min Rain = 0
KHO1 200419Z 19008KT 15/02 A299 RMK A01 T01480020  RH  042%=      5-min Rain = 0
KHO1 200420Z 19009KT 15/02 A299 RMK A01 T01480021  RH  042%=      5-min Rain = 0
KHO1 200421Z 19009KT 15/02 A299 RMK A01 T01490023  RH  042%=      5-min Rain = 0
KHO1 200422Z 19010KT 15/02 A299 RMK A01 T01500024  RH  043%=      5-min Rain = 0
KHO1 200423Z 19009KT 15/02 A299 RMK A01 T01510024  RH  042%=      5-min Rain = 0
KHO1 200424Z 19008KT 15/03 A299 RMK A01 T01510025  RH  043%=      5-min Rain = 0
KHO1 200425Z 19010KT 15/03 A299 RMK A01 T01510026  RH  043%=      5-min Rain = 0
KHO1 200426Z 19009KT 15/03 A299 RMK A01 T01510026  RH  043%=      5-min Rain = 0
KHO1 200427Z 19010KT 15/03 A299 RMK A01 T01510027  RH  043%=      5-min Rain = 0
KHO1 200428Z 19009KT 15/03 A299 RMK A01 T01520028  RH  043%=      5-min Rain = 0
KHO1 200429Z 19009KT 15/03 A299 RMK A01 T01510028  RH  043%=      5-min Rain = 0
KHO1 200430Z 19011KT 15/03 A299 RMK A01 T01510029  RH  044%=      5-min Rain = 0
KHO1 200431Z 19010KT 15/03 A299 RMK A01 T01520031  RH  044%=      5-min Rain = 0
KHO1 200432Z 18011KT 15/03 A299 RMK A01 T01530032  RH  044%=      5-min Rain = 0
KHO1 200433Z 19009KT 15/03 A299 RMK A01 T01540032  RH  044%=      5-min Rain = 0
KHO1 200434Z 18009KT 15/03 A299 RMK A01 T01530032  RH  044%=      5-min Rain = 0
KHO1 200435Z 18010KT 15/03 A2989 RMK A01 T01540032  RH  044%=      5-min Rain = 0
KHO1 200436Z 18010G15KT 15/03 A2989 RMK A01 T01540032  RH  044%=      5-min Rain = 0
KHO1 200437Z 18011KT 15/03 A2989 RMK A01 T01540033  RH  044%=      5-min Rain = 0
KHO1 200438Z 18010KT 15/03 A2989 RMK A01 T01540033  RH  044%=      5-min Rain = 0
KHO1 200439Z 18010KT 15/03 A2989 RMK A01 T01540033  RH  044%=      5-min Rain = 0
KHO1 200440Z 18010KT 15/03 A2989 RMK A01 T01530033  RH  044%=      5-min Rain = 0
KHO1 200441Z 18010KT 15/03 A2989 RMK A01 T01530033  RH  045%=      5-min Rain = 0
KHO1 200442Z 18011KT 15/03 A2989 RMK A01 T01530034  RH  045%=      5-min Rain = 0
KHO1 200443Z 18011KT 15/03 A2989 RMK A01 T01530034  RH  045%=      5-min Rain = 0
KHO1 200444Z 18010KT 15/03 A2989 RMK A01 T01530034  RH  045%=      5-min Rain = 0
KHO1 200445Z 18011KT 15/04 A2989 RMK A01 T01530035  RH  045%=      5-min Rain = 0
KHO1 200446Z 18011KT 15/04 A2989 RMK A01 T01530035  RH  045%=      5-min Rain = 0
KHO1 200447Z 18011KT 15/04 A2989 RMK A01 T01530035  RH  045%=      5-min Rain = 0
KHO1 200448Z 18011KT 15/04 A2989 RMK A01 T01520035  RH  045%=      5-min Rain = 0
KHO1 200449Z 18011KT 15/04 A2989 RMK A01 T01520036  RH  046%=      5-min Rain = 0
KHO1 200450Z 18013KT 15/04 A2989 RMK A01 T01520036  RH  046%=      5-min Rain = 0
KHO1 200451Z 18012KT 15/04 A2989 RMK A01 T01520037  RH  046%=      5-min Rain = 0
KHO1 200452Z 18012KT 15/04 A2989 RMK A01 T01520037  RH  046%=      5-min Rain = 0
KHO1 200453Z 18011KT 15/04 A2989 RMK A01 T01520037  RH  046%=      5-min Rain = 0
KHO1 200454Z 18012KT 15/04 A2989 RMK A01 T01520038  RH  046%=      5-min Rain = 0
KHO1 200455Z 18011KT 15/04 A2989 RMK A01 T01520038  RH  046%=      5-min Rain = 0
KHO1 200456Z 18012KT 15/04 A2989 RMK A01 T01520038  RH  046%=      5-min Rain = 0
KHO1 200457Z 18011KT 15/04 A2989 RMK A01 T01520038  RH  047%=      5-min Rain = 0
KHO1 200458Z 18010KT 15/04 A2989 RMK A01 T01520039  RH  047%=      5-min Rain = 0
KHO1 200459Z 18012KT 15/04 A2989 RMK A01 T01520039  RH  047%=      5-min Rain = 0
KHO1 200500Z 18012KT 15/04 A2989 RMK A01 T01520039  RH  047%=      5-min Rain = 0
KHO1 200501Z 18013KT 15/04 A2989 RMK A01 T01520040  RH  047%=      5-min Rain = 0
KHO1 200502Z 18010KT 15/04 A2989 RMK A01 T01520040  RH  047%=      5-min Rain = 0
KHO1 200503Z 18011KT 15/04 A2989 RMK A01 T01520040  RH  047%=      5-min Rain = 0
KHO1 200504Z 18013KT 15/04 A2989 RMK A01 T01520040  RH  047%=      5-min Rain = 0
KHO1 200505Z 18011KT 15/04 A2989 RMK A01 T01520040  RH  047%=      5-min Rain = 0
KHO1 200506Z 18011KT 15/04 A2989 RMK A01 T01520040  RH  047%=      5-min Rain = 0
KHO1 200507Z 18012KT 15/04 A299 RMK A01 T01510040  RH  047%=      5-min Rain = 0
KHO1 200508Z 19011KT 15/04 A299 RMK A01 T01510041  RH  048%=      5-min Rain = 0
KHO1 200509Z 18011KT 15/04 A299 RMK A01 T01510041  RH  048%=      5-min Rain = 0
KHO1 200510Z 18011KT 15/04 A2989 RMK A01 T01510041  RH  048%=      5-min Rain = 0
KHO1 200511Z 18013KT 15/04 A299 RMK A01 T01510041  RH  048%=      5-min Rain = 0
KHO1 200512Z 18011KT 15/04 A299 RMK A01 T01510041  RH  048%=      5-min Rain = 0
KHO1 200513Z 18012KT 15/04 A299 RMK A01 T01510041  RH  048%=      5-min Rain = 0
KHO1 200514Z 19012KT 15/04 A299 RMK A01 T01510041  RH  048%=      5-min Rain = 0
KHO1 200515Z 18010KT 15/04 A299 RMK A01 T01510041  RH  048%=      5-min Rain = 0
KHO1 200516Z 19011KT 15/04 A299 RMK A01 T01500041  RH  048%=      5-min Rain = 0
KHO1 200517Z 19011KT 15/04 A299 RMK A01 T01510041  RH  048%=      5-min Rain = 0
KHO1 200518Z 18011KT 15/04 A299 RMK A01 T01500041  RH  048%=      5-min Rain = 0
KHO1 200519Z 18010KT 15/04 A299 RMK A01 T01500041  RH  048%=      5-min Rain = 0
KHO1 200520Z 19009KT 15/04 A299 RMK A01 T01500042  RH  048%=      5-min Rain = 0
KHO1 200521Z 19009KT 15/04 A299 RMK A01 T01490042  RH  048%=      5-min Rain = 0
KHO1 200522Z 18009KT 15/04 A299 RMK A01 T01490042  RH  049%=      5-min Rain = 0
KHO1 200523Z 19009KT 15/04 A299 RMK A01 T01490042  RH  049%=      5-min Rain = 0
KHO1 200524Z 19009KT 15/04 A299 RMK A01 T01490042  RH  049%=      5-min Rain = 0
KHO1 200525Z 19009KT 15/04 A299 RMK A01 T01490042  RH  049%=      5-min Rain = 0
KHO1 200526Z 19010KT 15/04 A299 RMK A01 T01480042  RH  049%=      5-min Rain = 0
KHO1 200527Z 19009KT 15/04 A299 RMK A01 T01490042  RH  049%=      5-min Rain = 0
KHO1 200528Z 19010KT 15/04 A299 RMK A01 T01490042  RH  049%=      5-min Rain = 0
KHO1 200529Z 19009KT 15/04 A299 RMK A01 T01490042  RH  049%=      5-min Rain = 0
KHO1 200530Z 19011KT 15/04 A299 RMK A01 T01480042  RH  049%=      5-min Rain = 0
KHO1 200531Z 18010KT 15/04 A299 RMK A01 T01480043  RH  049%=      5-min Rain = 0
KHO1 200532Z 19010KT 15/04 A299 RMK A01 T01480043  RH  049%=      5-min Rain = 0
KHO1 200533Z 19010KT 15/04 A299 RMK A01 T01480043  RH  049%=      5-min Rain = 0
KHO1 200534Z 19009KT 15/04 A299 RMK A01 T01480043  RH  049%=      5-min Rain = 0
KHO1 200535Z 20009KT 15/04 A299 RMK A01 T01480043  RH  049%=      5-min Rain = 0
KHO1 200536Z 20010KT 15/04 A299 RMK A01 T01480043  RH  049%=      5-min Rain = 0
KHO1 200537Z 19010KT 15/04 A299 RMK A01 T01480043  RH  049%=      5-min Rain = 0
KHO1 200538Z 19009KT 15/04 A299 RMK A01 T01480043  RH  049%=      5-min Rain = 0
KHO1 200539Z 19009KT 15/04 A299 RMK A01 T01480043  RH  050%=      5-min Rain = 0
KHO1 200540Z 20009KT 15/04 A299 RMK A01 T01480044  RH  050%=      5-min Rain = 0
KHO1 200541Z 19009KT 15/04 A299 RMK A01 T01480044  RH  050%=      5-min Rain = 0
KHO1 200542Z 20008KT 15/04 A299 RMK A01 T01480044  RH  050%=      5-min Rain = 0
KHO1 200543Z 19010KT 15/04 A299 RMK A01 T01470044  RH  050%=      5-min Rain = 0
KHO1 200544Z 20008KT 15/04 A299 RMK A01 T01470044  RH  050%=      5-min Rain = 0
KHO1 200545Z 20008KT 15/04 A299 RMK A01 T01470044  RH  050%=      5-min Rain = 0
KHO1 200546Z 19008KT 15/04 A299 RMK A01 T01470044  RH  050%=      5-min Rain = 0
KHO1 200547Z 19008KT 15/04 A299 RMK A01 T01460044  RH  050%=      5-min Rain = 0
KHO1 200548Z 19009KT 15/05 A299 RMK A01 T01460045  RH  050%=      5-min Rain = 0
KHO1 200549Z 19009KT 15/05 A299 RMK A01 T01470045  RH  050%=      5-min Rain = 0
KHO1 200550Z 19007KT 15/05 A299 RMK A01 T01470045  RH  050%=      5-min Rain = 0
KHO1 200551Z 19008KT 15/05 A299 RMK A01 T01460045  RH  051%=      5-min Rain = 0
KHO1 200552Z 19008KT 15/05 A299 RMK A01 T01450045  RH  051%=      5-min Rain = 0
KHO1 200553Z 19008KT 15/05 A299 RMK A01 T01450045  RH  051%=      5-min Rain = 0
KHO1 200554Z 19009KT 15/05 A299 RMK A01 T01450045  RH  051%=      5-min Rain = 0
KHO1 200555Z 19009KT 15/05 A299 RMK A01 T01450045  RH  051%=      5-min Rain = 0
KHO1 200556Z 19008KT 15/05 A299 RMK A01 T01450045  RH  051%=      5-min Rain = 0
KHO1 200557Z 19008KT 15/05 A299 RMK A01 T01450045  RH  051%=      5-min Rain = 0
KHO1 200558Z 19009KT 15/05 A299 RMK A01 T01450046  RH  051%=      5-min Rain = 0
KHO1 200559Z 19010KT 15/05 A299 RMK A01 T01450046  RH  051%=      5-min Rain = 0

Page generated in 0.1149 seconds.